GEFSMA_500_meanwind_000.txt.gz
Wind_Speed
39 39 39 38 37 40 41 41 40 39 37 37 36 33 30 29 29 28 26 25 23 22 22 23 24 25 25 24 22 20 18 16 16 15 15 17 18 17 15 13 13 15 14
42 43 40 37 37 41 45 42 40 40 37 41 42 36 30 29 31 32 29 28 29 28 27 27 27 29 28 29 28 26 25 23 20 19 17 16 17 19 19 17 17 17 16
41 43 34 33 34 40 40 36 37 39 36 41 45 39 27 26 30 32 32 31 32 31 30 31 30 32 32 32 33 32 30 29 25 23 22 20 18 19 21 21 21 20 17
35 33 29 33 38 44 42 39 38 40 39 43 41 28 22 25 31 31 31 31 31 31 32 33 32 32 35 35 37 38 37 33 31 27 24 22 21 21 21 23 24 21 19
36 36 35 34 37 41 43 45 44 43 42 39 33 23 22 25 29 31 29 30 33 34 34 33 32 32 33 36 38 40 42 37 35 32 27 24 22 21 22 22 23 22 19
37 37 38 38 40 41 41 42 43 41 38 34 32 29 29 29 28 29 28 29 32 33 32 31 32 32 32 33 36 40 42 42 39 37 32 27 25 23 24 24 22 21 19
36 36 36 36 37 36 35 35 36 37 36 36 35 33 33 31 28 28 28 29 30 30 29 30 32 33 32 32 33 38 41 43 42 40 36 31 27 26 25 25 23 22 22
36 35 35 34 33 33 32 33 33 33 34 34 35 32 30 27 25 27 28 28 29 30 30 31 33 34 34 34 36 38 40 42 43 43 40 35 29 27 25 26 24 23 24
39 38 39 38 37 36 34 33 33 33 32 32 33 33 32 29 30 30 31 32 33 32 32 34 32 32 32 34 37 40 42 42 42 43 42 38 34 29 27 26 27 26 27
39 41 41 41 40 39 37 35 34 34 33 31 32 34 36 33 31 32 35 35 33 32 31 30 31 31 32 31 33 34 38 40 41 42 43 41 37 32 28 24 27 29 29
37 38 41 43 42 40 38 36 36 35 33 31 32 34 36 36 36 37 33 32 33 32 31 32 33 32 32 31 32 32 33 38 36 37 40 38 36 33 28 25 25 28 29
37 38 39 41 42 41 40 38 37 35 34 34 33 35 37 38 37 36 33 30 31 32 30 29 30 32 29 31 29 31 30 36 31 31 35 34 34 31 25 25 27 28 29
37 38 37 38 40 41 40 40 39 38 36 36 35 36 37 37 35 33 32 31 31 30 28 28 28 29 30 31 32 29 31 34 32 32 30 32 32 30 28 28 31 30 30
36 35 35 35 37 39 39 39 39 40 39 39 38 38 39 38 36 34 34 32 31 29 28 26 26 24 22 21 22 24 30 31 32 29 28 30 30 31 30 31 33 34 33
37 35 33 33 34 36 38 39 39 39 40 40 40 40 39 37 37 36 31 29 29 26 23 22 25 24 19 19 22 22 28 35 35 35 33 32 31 32 33 35 35 36 37
35 36 34 34 34 33 35 37 37 38 38 39 40 41 39 37 38 34 31 29 26 21 18 19 19 20 18 20 22 23 25 24 27 31 35 36 34 31 31 35 36 37 38
34 36 35 34 33 34 33 33 33 34 35 36 38 38 37 35 34 32 29 29 28 24 21 17 17 19 18 21 24 22 22 20 19 20 23 23 22 28 32 33 34 36 38
34 34 33 32 31 30 29 28 29 30 31 32 31 31 29 28 30 29 29 29 27 26 23 23 20 21 22 24 22 21 22 23 22 24 24 25 29 31 33 34 36 37 38
35 31 31 30 28 27 24 23 24 24 24 26 25 25 24 25 25 24 26 23 22 20 19 21 23 20 18 17 17 18 18 18 20 22 22 24 26 28 30 32 34 36 38
37 31 29 29 29 28 24 22 21 19 20 21 23 22 23 24 18 22 20 17 19 15 16 18 16 13 14 14 15 15 17 21 24 25 25 26 26 27 27 29 32 34 36
37 33 27 28 27 26 21 20 19 16 16 21 23 21 25 26 21 15 15 14 12 10 11 14 15 13 14 14 15 16 17 18 20 22 24 26 27 28 30 31 33 34 36
37 34 28 28 25 24 21 20 18 15 17 21 20 20 21 21 23 19 15 11 11 14 16 16 14 13 13 14 14 14 15 16 18 22 25 27 28 29 31 33 36 38 40
38 35 30 28 25 24 21 20 19 13 15 18 21 21 20 19 18 16 12 12 13 14 14 14 13 11 10 10 11 13 15 17 18 20 22 25 27 29 31 33 36 37 40
40 36 30 28 27 26 22 21 22 16 15 18 19 18 17 16 16 13 11 13 14 14 12 11 10 8 8 9 10 11 13 15 18 21 24 27 29 29 32 34 37 39 42
43 39 32 30 28 26 23 22 22 18 19 21 19 16 15 15 15 14 14 14 13 12 12 11 9 9 8 9 10 12 14 15 18 21 23 25 26 27 28 30 33 36 39
44 41 35 31 30 28 25 24 22 20 22 22 21 17 16 16 15 14 14 13 13 14 13 11 11 9 9 9 9 11 12 13 14 15 17 19 19 20 21 24 27 30 31

GEFSMA_500_meanwind_006.txt.gz
Wind_Speed
42 42 42 41 42 43 44 44 46 47 45 42 40 43 45 42 41 40 37 35 33 29 27 27 25 25 24 24 22 21 21 21 20 19 17 16 16 18 19 19 19 18 17
40 39 37 37 38 40 41 40 41 42 40 35 29 25 26 32 39 43 43 41 36 32 31 31 30 29 28 28 26 25 25 25 25 25 23 21 19 17 18 21 21 21 20
38 36 34 35 36 36 36 36 34 32 31 30 28 25 22 21 24 33 39 43 41 36 33 33 32 32 31 31 31 29 29 29 29 28 28 27 24 22 20 20 22 24 24
35 32 31 32 33 34 36 36 36 36 35 34 32 29 25 24 25 29 34 39 42 39 36 34 32 32 32 31 31 32 32 33 33 32 31 30 29 27 24 23 23 25 27
30 30 29 30 31 34 35 36 36 37 37 36 35 33 30 27 27 28 28 31 36 37 37 36 34 34 33 33 33 33 35 36 37 36 35 34 32 32 30 27 26 26 27
25 26 27 28 30 33 35 37 38 38 37 35 34 32 30 29 30 30 28 26 29 32 36 38 37 36 35 34 35 35 35 37 38 39 39 38 36 34 34 32 29 27 27
19 20 22 24 27 31 33 36 39 39 38 35 33 29 28 29 30 31 32 32 32 33 35 37 37 37 36 34 34 35 36 38 40 41 41 40 39 38 36 35 33 30 28
14 15 17 21 24 28 31 35 38 40 40 38 36 33 30 29 30 30 33 35 35 37 38 38 38 38 36 34 33 36 38 39 41 42 41 39 39 40 39 38 37 34 30
15 16 17 20 24 27 31 34 37 38 39 39 39 38 34 31 31 30 31 34 35 35 35 36 36 36 35 35 35 37 40 41 41 41 42 41 40 41 42 41 40 37 33
18 18 19 21 24 27 31 34 36 38 39 39 39 39 37 34 33 32 31 31 32 33 33 34 35 35 36 37 38 38 39 39 39 40 41 42 42 42 43 43 42 40 36
22 20 21 23 25 29 32 32 33 35 37 37 38 38 38 37 35 33 31 31 32 33 35 35 35 35 36 38 39 37 36 35 36 38 38 39 39 39 42 44 44 43 40
24 21 22 24 26 29 32 33 32 32 33 34 35 36 38 38 37 35 33 33 33 34 37 38 38 37 38 39 39 37 36 35 36 36 36 36 37 37 40 43 46 45 42
25 22 23 25 27 29 32 34 34 32 31 31 32 34 36 38 39 37 35 34 35 35 37 39 39 39 38 38 38 37 36 34 34 35 35 36 36 37 37 40 44 46 44
27 24 24 25 26 28 31 34 35 33 31 30 30 32 35 36 38 38 37 35 36 35 35 35 37 37 37 36 36 36 35 35 35 35 34 35 34 34 35 37 40 43 43
26 24 24 25 25 27 30 33 34 32 30 30 29 30 33 35 36 37 37 35 35 34 33 34 35 36 36 36 35 34 34 33 32 31 29 28 27 29 34 39 41 42 42
27 25 24 24 25 27 29 31 34 33 30 28 27 28 29 32 33 34 35 35 35 34 34 34 36 36 36 36 34 33 31 29 27 26 25 24 23 24 29 37 42 44 43
29 29 28 27 27 28 30 30 33 33 31 29 27 26 27 27 29 31 33 34 35 35 36 36 38 38 37 35 33 32 31 28 27 26 24 23 23 23 25 30 37 41 42
34 35 35 33 31 31 31 30 31 33 32 29 26 25 24 25 26 28 30 32 33 34 35 37 39 38 36 33 32 31 30 29 28 26 25 23 23 23 24 26 31 39 41
40 39 39 37 34 32 31 30 31 32 31 29 26 24 21 20 21 23 25 27 29 31 33 36 37 36 33 29 28 28 27 27 26 25 24 23 22 22 23 23 24 28 34
44 44 43 40 36 34 32 30 30 31 30 28 25 22 19 16 16 17 18 20 24 28 31 34 34 34 31 28 26 26 26 25 23 22 20 19 18 17 17 18 19 21 23
52 50 47 43 40 38 35 32 30 30 29 27 24 21 17 13 12 13 14 15 19 23 27 30 32 31 28 27 26 24 22 21 18 16 16 16 16 17 18 20 21 22 24
63 56 49 45 43 42 38 35 32 30 29 27 24 21 18 14 12 12 13 14 16 17 20 24 27 27 26 25 23 21 19 18 16 15 15 15 16 18 19 21 22 23 25
69 61 53 48 46 43 41 38 34 31 30 28 25 22 19 15 14 13 14 16 19 21 23 24 25 25 24 22 20 19 18 17 15 15 15 15 16 17 18 19 21 22 24
69 64 58 51 47 45 44 41 38 34 31 29 26 23 19 16 14 15 16 18 20 24 27 26 24 22 20 19 19 18 17 15 14 13 14 14 14 15 16 18 20 21 23
65 61 58 52 49 48 46 43 40 37 34 32 28 24 21 17 14 15 17 18 20 22 25 25 23 21 20 19 18 17 15 13 13 13 13 13 13 13 14 16 18 20 22
57 56 53 49 48 47 46 43 41 39 36 33 30 26 23 19 16 16 17 18 20 22 23 23 22 21 20 19 16 14 13 12 11 10 10 10 10 11 12 15 16 18 20

GEFSMA_500_meanwind_012.txt.gz
Wind_Speed
34 34 35 36 36 35 34 34 34 33 32 30 30 29 28 28 27 28 31 32 34 35 34 32 30 28 27 26 25 24 23 22 21 20 19 18 17 17 18 19 20 19 18
34 33 32 31 30 29 29 28 27 26 26 25 25 26 25 25 23 24 26 26 29 33 35 35 34 33 32 30 29 27 26 25 24 22 22 21 20 19 18 18 19 20 20
32 30 29 27 26 25 24 23 23 23 23 24 24 25 25 25 25 23 23 25 26 28 32 35 38 38 37 36 34 32 30 29 28 26 25 24 24 24 23 22 21 20 20
28 28 27 26 24 23 22 22 22 22 23 24 24 25 25 25 25 25 26 26 26 27 29 32 36 39 41 41 39 36 34 32 32 31 29 28 27 27 27 27 26 25 23
26 26 26 25 23 22 21 21 21 21 22 23 24 25 26 26 26 27 28 29 29 30 30 31 34 37 41 43 42 40 37 35 35 34 33 32 31 30 30 30 30 30 28
24 24 23 21 20 20 19 18 18 18 20 22 24 25 25 26 26 27 28 29 30 31 32 34 34 34 36 39 41 42 39 37 36 36 35 34 33 33 33 34 33 33 33
24 22 20 18 17 16 16 16 16 17 19 21 23 24 25 26 27 28 29 29 29 30 31 33 34 32 31 33 35 37 38 37 37 37 37 36 36 35 35 36 36 35 35
22 20 19 17 16 17 17 17 17 18 20 22 24 24 24 25 27 28 30 31 31 30 30 30 32 32 31 29 30 33 35 36 37 38 37 37 37 36 36 36 36 36 37
22 21 20 20 20 20 19 19 19 19 20 23 25 26 25 24 26 28 30 31 32 32 31 30 30 30 31 31 31 31 33 34 35 36 36 36 35 35 35 36 36 36 36
22 22 23 23 24 23 22 21 20 19 20 22 25 27 28 27 26 26 29 31 33 33 32 31 30 29 29 29 31 31 31 33 34 36 35 34 33 33 34 35 35 36 36
23 24 25 27 28 27 26 24 22 22 21 23 24 26 28 28 28 26 26 29 32 33 32 32 30 28 27 27 29 29 29 31 33 33 33 32 32 33 32 32 33 35 36
25 25 27 29 30 30 28 26 25 24 24 24 25 26 27 27 28 28 25 26 30 31 32 31 30 30 28 27 28 28 29 30 30 30 30 31 32 32 31 31 32 33 35
30 29 29 30 31 31 30 29 28 27 26 26 26 26 26 27 27 27 26 25 27 30 30 30 30 30 30 28 28 28 28 27 28 29 30 31 32 32 32 33 32 32 33
35 35 34 34 34 34 33 31 30 29 28 28 27 26 26 27 27 27 26 26 27 28 30 30 30 29 29 28 28 26 26 26 27 28 30 31 32 32 32 32 32 32 32
38 38 37 37 37 36 36 34 32 31 29 29 28 27 26 26 27 27 26 26 26 27 29 30 30 30 29 28 28 26 25 26 27 28 29 30 31 32 32 32 31 31 31
45 43 40 39 39 39 38 36 34 32 30 30 30 29 27 26 26 26 26 25 25 25 27 30 30 30 30 29 28 27 27 26 26 28 29 29 30 30 30 30 29 28 28
54 51 48 45 43 41 40 38 35 32 30 30 30 29 27 25 25 26 25 24 23 24 25 28 29 30 30 29 29 28 27 27 27 28 28 28 29 28 28 26 26 25 25
60 57 54 53 50 46 43 41 39 35 32 30 29 28 27 25 25 25 24 22 22 22 24 26 28 29 29 30 29 29 29 29 29 28 28 28 27 26 25 24 24 23 23
65 62 58 56 54 52 48 45 43 39 35 32 30 28 26 25 24 24 23 22 21 21 22 24 26 28 30 30 30 30 31 31 30 28 27 27 26 25 24 24 23 23 23
69 67 64 61 58 56 53 49 46 42 37 34 31 28 26 25 24 23 22 21 20 19 20 22 26 29 30 30 30 31 31 31 30 29 28 27 26 25 24 23 22 21 20
75 72 70 67 65 61 57 53 51 47 42 37 33 29 27 25 24 23 21 21 20 18 19 21 25 28 30 31 31 30 30 30 29 28 27 25 24 22 21 19 18 16 15
81 79 76 72 68 66 63 59 56 52 47 42 36 33 30 27 25 24 22 21 20 19 19 19 21 24 28 31 32 31 30 29 28 26 24 22 20 18 16 16 15 15 14
71 75 75 72 69 65 63 61 58 55 52 48 42 37 33 30 27 25 23 22 20 18 17 17 18 20 23 27 29 28 27 27 26 24 22 19 17 15 14 14 14 14 15
42 50 57 63 65 65 63 59 55 54 52 49 44 39 35 32 30 27 24 22 20 18 17 17 17 18 19 20 22 24 25 23 22 20 18 16 14 13 13 13 13 13 13
30 31 35 43 51 57 61 61 58 55 52 49 45 40 37 35 32 29 27 24 21 20 19 19 18 18 19 21 23 24 23 23 20 18 16 14 13 12 12 12 11 11 11
32 30 30 32 36 45 53 58 59 58 56 51 46 42 39 36 34 32 30 26 23 21 20 20 20 19 20 21 22 23 21 19 17 15 13 12 11 11 10 10 9 9 9

GEFSMA_500_meanwind_018.txt.gz
Wind_Speed
26 25 24 23 23 21 20 20 20 20 19 18 18 19 20 19 19 18 18 19 21 23 26 28 30 29 27 26 25 23 21 19 18 17 16 15 14 14 14 15 15 15 15
24 24 23 22 21 19 19 20 20 19 19 18 17 17 18 18 19 19 19 19 20 20 22 25 28 30 30 29 29 27 25 23 21 20 19 18 17 16 16 16 15 15 14
22 22 21 20 20 19 20 20 20 19 19 18 18 18 18 19 20 21 21 21 21 21 22 24 25 27 29 30 31 31 29 27 25 24 23 21 20 19 19 18 18 17 16
21 20 19 18 18 19 19 20 20 20 19 18 18 17 17 18 19 20 21 22 23 24 24 25 25 25 27 29 31 32 32 31 29 27 27 26 24 23 22 21 21 21 20
21 19 18 18 18 18 18 18 19 19 18 17 16 16 15 15 16 17 19 20 22 24 25 26 26 26 27 28 30 32 34 34 33 32 31 30 29 28 26 25 24 24 24
21 20 19 18 17 16 16 16 17 17 17 16 15 14 13 12 12 13 15 17 19 21 24 26 27 28 28 29 30 31 33 36 37 37 36 35 34 32 30 28 27 26 26
21 21 20 19 17 16 16 16 16 17 17 16 14 13 12 11 11 11 13 14 17 19 22 25 27 28 28 29 31 31 33 34 37 39 40 39 38 37 35 33 30 29 28
21 21 21 19 18 18 17 17 17 17 17 17 16 15 13 12 11 12 12 13 15 18 21 24 27 29 30 30 29 31 32 33 35 38 39 41 41 40 38 35 33 31 29
19 19 20 19 19 19 19 18 19 19 19 19 17 16 15 15 14 14 14 14 15 17 20 23 26 29 31 31 30 30 31 33 33 35 37 39 41 41 39 36 34 32 30
19 20 20 20 20 20 20 20 21 21 21 21 20 19 17 16 16 18 18 16 16 18 20 21 24 28 31 32 31 31 31 32 33 33 35 37 39 40 39 36 34 32 31
21 21 22 22 22 21 21 22 23 23 23 23 23 22 20 19 17 17 20 20 18 18 20 21 24 26 29 31 32 30 31 31 31 31 32 34 37 38 39 36 34 33 31
25 25 24 24 24 24 24 24 24 25 25 26 26 25 24 23 21 19 19 20 21 20 20 21 23 25 27 30 31 30 29 28 29 29 30 30 32 34 35 34 32 31 30
32 30 29 28 28 28 28 27 27 27 27 28 28 27 27 26 24 23 21 21 21 22 22 21 23 25 26 28 29 29 27 25 25 26 25 27 28 29 30 29 28 28 29
41 39 36 34 33 33 33 32 31 30 30 30 30 30 29 28 27 26 24 23 22 23 23 22 22 24 25 27 28 28 27 24 24 23 23 23 24 26 25 25 26 27 28
49 48 46 43 41 40 39 38 36 35 34 33 33 32 31 30 29 28 27 25 23 22 24 24 22 22 25 27 28 28 27 25 24 22 21 21 21 21 23 24 26 27 27
54 55 55 53 51 49 46 44 42 41 38 36 35 34 33 32 31 30 28 26 24 22 23 25 23 21 23 25 27 27 26 24 24 21 21 22 22 23 25 26 27 28 28
58 59 59 59 58 57 54 51 48 47 44 42 39 37 35 33 32 31 29 27 25 23 22 24 23 21 22 24 27 27 27 24 23 22 22 22 23 24 25 26 26 27 27
63 63 63 63 63 62 60 58 54 52 50 47 44 41 38 36 34 32 30 28 26 24 22 22 22 20 20 23 26 26 26 25 25 24 24 23 24 24 24 24 24 25 25
68 69 68 67 66 65 63 61 59 57 55 52 49 46 42 39 36 34 31 29 26 24 22 21 21 20 19 21 24 26 27 26 25 25 25 24 23 23 23 23 23 23 23
63 68 71 72 71 70 67 65 62 60 58 55 53 50 46 43 39 36 33 30 27 24 22 21 20 18 17 19 22 24 25 25 25 25 25 25 24 23 23 23 23 23 22
45 52 60 67 72 74 73 70 66 62 59 57 54 52 49 46 42 38 35 31 29 26 23 20 19 17 15 16 18 21 22 23 23 24 24 24 24 23 23 22 22 22 22
35 37 40 47 56 65 72 74 72 68 62 58 55 53 51 48 45 41 37 34 31 27 24 21 18 16 14 14 16 19 21 22 22 22 22 23 23 23 23 22 21 21 22
34 34 33 34 37 45 55 66 72 72 68 62 57 54 52 49 47 43 39 36 32 29 25 21 18 16 14 13 15 17 18 20 21 22 22 22 22 22 22 22 22 22 21
37 36 35 34 34 34 38 46 59 68 70 67 61 56 53 51 48 45 41 38 34 30 26 22 19 16 14 13 14 16 17 18 19 20 21 22 23 23 22 22 22 21 20
41 39 37 36 33 32 32 34 40 53 63 66 64 59 55 52 50 47 44 40 37 32 27 23 20 17 15 14 14 15 16 16 18 19 19 20 20 21 22 22 21 20 19
41 40 39 37 35 33 30 29 30 38 50 59 62 61 57 53 51 48 46 43 39 34 29 25 22 18 16 15 15 15 15 16 16 16 16 17 18 20 21 22 21 19 18

GEFSMA_500_meanwind_024.txt.gz
Wind_Speed
28 26 24 25 25 25 24 24 23 22 22 23 23 22 22 22 22 22 22 21 20 21 21 22 23 25 28 29 29 28 25 24 22 21 20 19 18 17 16 16 15 14 13
30 26 24 24 24 24 24 24 24 23 23 23 23 23 23 23 22 22 21 21 20 20 21 21 23 24 26 28 31 31 29 27 26 25 23 22 21 20 19 17 16 15 14
30 24 23 23 23 23 24 24 24 24 24 24 24 25 24 23 23 22 21 21 21 21 21 22 23 24 25 26 30 33 32 31 30 28 27 25 24 23 22 20 18 17 15
26 22 20 21 21 21 22 23 24 25 25 25 25 25 25 24 23 22 22 21 21 21 21 22 23 24 25 25 27 29 33 34 33 32 31 29 27 26 25 23 21 20 18
24 21 20 21 20 21 21 22 23 24 25 25 25 25 24 23 22 21 20 20 20 20 20 21 22 23 24 25 26 27 29 32 34 35 34 33 31 29 28 26 24 23 22
22 22 22 22 21 21 21 22 22 23 24 24 24 24 23 22 21 20 19 18 17 18 18 19 20 21 23 25 26 27 28 30 33 36 37 36 34 32 31 29 27 26 25
22 22 22 23 23 23 22 22 22 23 23 23 23 23 22 21 20 18 17 16 15 15 16 17 18 19 21 23 25 26 27 28 30 34 36 38 37 36 34 32 31 29 28
20 21 22 24 25 25 24 24 23 23 23 24 23 22 21 21 20 18 17 16 14 14 15 16 16 18 20 21 23 25 26 27 29 31 35 37 39 39 37 36 34 32 31
21 22 24 25 26 26 26 26 26 25 25 25 25 24 23 22 21 20 19 17 16 15 14 15 15 16 18 20 22 24 25 27 28 30 32 35 37 38 39 38 37 36 35
25 25 25 26 27 28 28 28 28 28 28 28 27 26 25 24 24 23 21 19 18 16 15 15 15 16 17 19 21 23 25 26 28 29 31 33 34 36 37 38 39 39 38
30 30 29 29 29 29 30 31 31 31 31 31 30 29 28 26 25 24 23 21 20 18 17 17 16 16 17 18 20 22 24 26 28 29 30 32 33 34 34 36 38 39 40
36 36 35 34 33 32 32 33 33 33 33 33 33 32 31 30 28 27 26 25 23 21 19 19 19 18 18 19 19 21 24 26 28 29 30 31 32 33 34 34 35 38 39
43 43 42 40 39 38 37 37 36 36 37 36 36 35 34 33 31 30 28 28 27 24 22 22 21 20 20 20 20 21 23 25 26 29 30 31 32 32 33 34 33 34 36
49 49 49 48 47 45 43 42 41 41 41 40 39 39 38 37 35 33 31 30 29 28 26 24 23 22 22 21 21 22 22 24 25 27 29 30 31 32 32 33 32 33 34
53 54 55 55 54 53 51 49 47 46 45 45 44 43 42 40 39 36 34 32 31 30 30 28 25 24 24 23 23 22 22 23 24 26 27 28 29 30 30 31 31 32 32
55 57 59 60 60 60 58 57 55 53 51 49 49 47 45 44 42 40 37 35 32 31 31 30 28 26 25 24 23 23 22 22 23 25 25 27 28 29 29 28 29 29 29
54 57 60 62 64 65 65 64 63 61 58 56 54 52 49 48 46 43 40 37 34 32 31 31 29 27 25 24 24 23 22 22 23 24 25 27 27 28 26 25 24 25 27
55 57 60 64 66 68 69 69 69 68 65 63 60 57 54 52 50 46 43 39 36 33 32 31 30 28 26 24 23 23 22 21 22 23 25 26 26 27 25 25 24 23 25
53 54 57 60 65 69 72 73 73 72 71 69 66 63 59 57 54 50 46 42 39 35 33 31 30 28 26 24 23 22 21 21 21 23 24 25 26 27 26 24 24 23 22
52 52 53 56 59 64 69 73 76 76 75 74 71 68 65 61 58 55 51 47 42 38 34 32 30 29 26 24 23 22 21 20 21 23 24 25 25 25 24 23 23 22 22
51 50 51 51 53 56 60 65 72 76 77 76 74 71 69 65 61 59 56 51 47 42 37 34 32 29 26 24 23 21 21 20 21 23 24 25 25 25 24 23 23 23 23
49 49 48 48 48 49 51 54 59 65 72 75 75 74 72 67 64 60 57 55 51 46 40 37 33 30 28 25 23 21 20 20 21 22 24 26 26 26 25 25 24 24 23
47 48 47 46 46 45 45 45 46 51 57 65 70 73 73 70 66 61 58 56 53 49 44 39 35 32 29 26 24 21 20 19 20 23 25 26 26 26 25 25 25 25 25
44 46 46 45 44 43 41 39 39 41 43 49 56 62 67 68 66 63 59 57 53 50 46 42 37 34 31 28 25 22 20 19 20 21 23 24 25 25 25 25 25 25 24
38 43 45 44 42 41 40 38 37 35 36 38 43 50 57 62 64 63 59 56 53 50 47 44 40 36 32 29 26 22 20 19 20 21 22 23 24 25 25 26 26 26 25
33 37 41 42 42 40 40 39 38 35 34 33 36 41 47 53 58 60 59 56 53 50 47 44 41 37 33 29 26 23 21 20 20 20 21 22 23 24 24 25 25 25 24

GEFSMA_500_meanwind_030.txt.gz
Wind_Speed
36 38 39 39 38 37 36 34 32 31 30 29 28 26 24 24 24 23 21 20 20 21 23 23 23 25 26 27 27 28 28 27 26 25 24 23 21 20 19 18 17 15 14
37 39 41 41 40 39 38 36 34 32 30 29 28 26 24 24 23 24 23 22 21 21 21 22 22 22 24 26 27 28 28 29 29 28 27 25 24 23 21 20 19 18 17
37 38 39 40 40 39 37 36 35 34 32 30 28 28 26 24 24 24 23 23 22 21 21 21 21 22 22 24 26 27 28 29 30 30 30 28 27 25 24 23 21 20 19
34 35 36 38 40 39 37 36 35 34 33 32 30 29 28 26 26 26 25 24 23 22 21 21 21 22 22 23 24 25 25 28 30 32 32 31 30 28 27 25 24 22 21
30 31 34 37 39 39 38 37 35 34 33 33 32 31 29 28 28 27 26 25 24 23 22 21 21 22 22 22 23 24 24 25 28 30 33 33 33 32 30 28 27 25 23
27 27 30 35 37 38 38 37 36 35 34 34 33 32 31 30 29 27 26 26 25 23 22 21 21 21 21 21 22 23 25 26 26 28 30 33 35 34 33 32 30 28 26
25 23 26 31 35 38 38 37 36 35 35 34 34 33 32 31 29 28 27 25 25 24 22 21 20 20 20 20 21 21 23 25 25 26 27 30 34 36 36 35 34 32 30
26 23 23 26 32 36 36 36 36 36 35 35 35 34 33 32 30 28 27 26 25 23 22 20 19 19 19 19 19 20 21 22 24 25 27 27 30 34 37 38 37 36 34
29 27 25 26 28 33 35 35 35 35 35 35 35 34 33 32 30 29 28 27 25 24 22 21 19 18 17 18 18 18 19 20 22 23 24 26 27 29 34 37 39 39 37
34 32 29 29 29 31 33 33 33 35 35 35 35 34 34 33 31 30 29 28 26 25 23 21 19 17 16 16 16 16 17 18 19 21 22 24 26 28 30 34 37 39 40
38 37 36 34 34 34 35 34 34 36 37 37 36 35 35 34 33 32 31 29 28 26 25 23 20 18 17 16 15 15 15 16 18 19 21 22 24 26 28 30 32 35 39
42 42 42 41 40 40 39 39 38 38 38 38 38 37 36 36 35 34 33 32 30 29 27 25 22 20 19 17 15 14 14 15 16 18 20 21 23 25 27 29 31 32 34
46 47 47 47 47 47 46 44 43 42 41 41 40 40 40 39 38 37 36 34 33 32 30 28 25 23 21 19 17 16 15 15 16 17 19 21 23 24 26 28 30 32 33
47 49 50 51 52 52 52 51 50 48 46 45 44 43 43 42 42 41 39 38 36 35 33 31 29 27 24 21 19 18 17 17 17 17 18 20 22 24 26 28 30 31 32
47 49 51 54 55 56 56 56 55 54 52 50 49 47 46 46 45 44 43 41 40 38 36 34 32 30 27 24 22 20 19 18 19 19 19 21 23 24 26 28 30 31 32
49 49 50 52 55 58 60 61 61 60 59 56 54 52 50 49 48 48 46 45 43 41 39 37 35 33 30 27 24 22 21 20 20 20 20 21 23 25 26 28 29 30 31
52 53 54 54 55 57 60 62 64 65 64 63 61 58 55 54 52 51 50 48 46 45 43 41 38 35 32 29 26 24 23 22 22 21 21 22 23 25 26 27 28 29 30
55 57 59 60 60 60 62 63 65 67 67 68 66 64 61 58 57 55 53 51 49 48 46 44 41 38 35 32 29 26 24 23 23 22 22 23 23 24 26 27 28 28 29
58 59 60 61 62 63 64 66 67 68 69 70 70 69 67 64 60 59 57 54 52 51 49 47 44 40 37 34 31 29 26 25 24 23 23 23 23 24 25 27 27 28 28
57 57 58 59 61 63 64 66 69 70 71 72 72 72 71 70 67 62 60 58 55 53 51 49 46 43 40 37 34 31 28 26 25 24 23 23 23 24 25 26 27 27 26
56 55 55 56 58 60 63 65 66 70 72 73 74 74 75 74 73 69 64 61 60 57 54 51 49 46 42 39 36 33 30 28 26 25 24 23 24 24 25 25 25 25 24
52 51 51 52 54 56 58 61 63 65 69 72 74 75 76 76 75 74 70 65 62 60 56 53 50 48 45 42 38 35 32 29 27 25 25 24 24 24 24 24 24 23 23
46 45 46 47 49 51 54 56 59 60 61 65 69 73 76 77 76 75 75 71 67 63 61 58 55 50 47 44 41 38 34 31 28 27 25 24 24 24 24 24 23 22 21
41 40 40 41 43 45 49 51 53 55 55 57 61 65 70 74 74 75 75 75 72 68 62 58 56 53 50 47 44 40 36 32 30 27 26 25 24 24 24 24 24 23 22
35 34 33 33 35 38 42 45 47 48 49 50 52 55 60 66 70 72 73 73 72 70 67 61 56 54 53 50 46 42 37 34 30 28 26 25 24 23 23 24 24 23 22
30 26 25 25 27 31 35 39 41 42 43 44 45 46 51 56 60 64 68 70 70 69 67 64 59 56 56 53 48 43 40 36 32 29 27 26 25 24 23 23 23 23 23

GEFSMA_500_meanwind_036.txt.gz
Wind_Speed
32 33 33 34 33 34 35 35 36 35 34 34 34 33 31 31 30 30 28 27 27 26 23 22 22 22 22 22 22 22 23 23 22 23 23 22 22 21 19 17 15 13 11
33 33 33 34 33 34 35 34 35 36 36 34 34 33 32 32 31 30 28 26 27 26 25 23 22 21 21 21 22 23 23 24 24 24 24 24 24 23 21 19 18 16 14
34 34 34 34 34 35 36 36 35 36 37 36 35 33 33 33 32 30 29 27 27 27 26 24 23 22 22 22 22 22 23 23 24 24 25 26 25 25 24 22 20 19 17
35 34 33 33 34 35 35 35 35 35 36 37 36 35 34 33 32 31 30 29 28 27 26 25 24 23 22 21 21 21 21 22 23 24 25 26 27 27 27 26 24 22 20
35 34 34 34 34 34 33 32 33 34 34 35 36 35 34 34 33 32 30 30 29 28 27 26 24 23 22 21 20 20 21 20 22 23 24 26 27 28 28 28 27 26 24
36 35 35 34 34 33 31 31 33 33 33 34 35 35 35 34 34 32 31 31 30 28 27 26 25 23 23 22 21 20 20 20 20 21 22 24 26 28 29 30 30 28 27
37 37 36 36 35 33 32 31 31 32 33 33 34 35 36 35 35 33 33 31 30 29 27 26 26 23 22 22 21 21 20 20 19 20 21 22 24 25 27 29 31 31 30
38 38 38 37 36 35 34 32 31 31 31 33 34 35 36 36 34 33 32 32 31 29 28 27 25 24 22 21 21 20 20 19 19 18 19 20 21 23 24 25 28 31 31
40 41 40 40 39 37 36 34 32 32 32 32 34 35 36 35 34 34 33 31 30 29 28 26 25 24 23 22 21 20 19 18 17 17 17 17 18 19 22 23 24 27 31
41 41 42 42 42 40 38 37 35 35 34 33 33 34 35 35 33 33 33 32 30 29 28 27 25 24 23 22 21 20 19 17 16 15 15 15 16 17 17 19 21 23 27
42 42 42 42 43 43 41 40 39 38 37 36 35 35 35 37 37 35 32 31 30 29 28 27 26 24 24 23 22 20 19 17 15 14 14 14 14 16 16 18 20 21 23
42 42 41 41 41 42 42 42 41 40 40 39 38 37 36 36 37 37 35 32 31 30 29 28 27 26 26 25 23 21 19 17 15 14 13 13 13 14 15 16 18 20 21
41 42 41 40 40 40 41 42 43 43 43 42 41 40 39 37 36 37 36 35 33 32 30 30 30 29 28 26 25 23 20 17 15 14 13 12 12 12 13 14 15 17 19
41 41 42 42 41 41 42 42 43 44 44 44 44 44 42 41 40 38 38 37 36 34 33 32 32 31 30 28 27 25 22 19 17 15 14 12 11 11 11 12 14 16 17
41 42 43 44 44 45 45 45 45 45 46 47 47 47 45 44 43 41 40 40 38 37 36 35 34 33 32 31 30 27 25 21 19 16 14 13 13 12 11 12 13 14 16
42 43 45 46 48 49 49 49 50 49 49 50 50 50 49 47 46 44 42 42 41 40 39 38 36 35 35 34 33 30 27 24 22 19 16 15 14 14 13 12 13 14 16
44 46 47 49 50 52 53 54 55 55 54 54 54 53 53 52 50 48 46 44 43 43 43 40 39 38 38 36 35 33 30 27 25 22 19 17 16 15 14 13 14 15 16
46 48 50 52 53 55 57 59 60 60 60 59 58 57 57 56 55 52 50 48 46 45 45 43 41 40 39 39 38 36 33 31 28 25 22 19 18 17 15 15 15 15 16
49 50 52 54 56 58 60 61 62 63 63 62 62 61 61 60 59 57 54 52 49 48 47 47 45 43 42 41 40 38 36 34 32 29 25 22 19 18 16 16 16 16 16
50 51 53 54 56 58 59 60 61 62 63 62 62 63 63 63 62 61 59 57 54 51 50 49 48 46 44 43 42 40 39 37 35 32 28 25 21 19 18 17 17 16 17
51 52 53 53 54 54 55 56 58 59 60 61 61 62 63 64 64 64 63 61 59 56 52 51 50 49 47 45 44 43 41 40 37 34 31 27 24 21 19 18 17 17 17
50 51 51 50 49 49 49 50 52 53 55 56 57 58 60 63 65 65 64 63 62 60 57 54 51 50 48 47 46 45 43 42 40 37 34 30 26 23 21 19 18 18 17
49 48 47 47 46 45 44 44 45 47 49 50 51 53 56 58 62 64 65 64 64 62 60 57 55 52 51 48 47 46 45 44 42 39 36 32 28 25 22 20 18 18 18
46 45 45 44 43 41 39 38 38 39 42 45 47 50 52 53 56 60 63 64 64 64 62 60 58 55 53 51 49 48 46 45 44 41 38 34 30 27 24 21 19 18 18
44 43 42 40 37 34 32 31 30 31 34 38 42 45 48 49 50 53 58 61 63 64 64 62 60 58 55 51 50 49 47 45 43 42 39 35 32 29 26 23 20 19 18
41 40 38 35 33 30 27 25 24 24 26 30 35 40 44 44 45 47 51 55 59 61 62 62 61 60 57 54 51 49 48 47 44 42 39 37 34 31 28 24 22 20 19

GEFSMA_500_meanwind_042.txt.gz
Wind_Speed
33 33 33 33 33 32 32 31 30 30 28 28 27 29 31 31 30 31 30 28 27 27 26 25 24 24 23 22 23 22 21 20 19 19 19 19 19 18 17 15 14 12 10
34 34 33 33 33 33 33 31 31 30 29 28 28 29 29 30 31 31 31 30 28 27 28 27 26 26 25 24 24 24 23 22 21 21 21 21 21 20 19 18 17 15 13
35 34 33 33 34 34 34 33 32 31 30 30 30 30 30 29 30 31 31 30 29 28 28 28 27 27 27 27 26 25 25 24 24 23 22 22 22 22 22 20 19 17 16
36 35 35 34 34 34 33 33 33 33 32 30 30 30 30 29 28 31 32 31 31 29 29 29 28 28 28 28 27 26 26 25 25 24 24 24 23 23 23 22 21 20 19
37 36 36 35 34 34 34 33 33 32 31 31 30 30 30 31 29 31 31 32 32 31 31 30 30 30 29 29 28 27 27 26 26 25 25 25 24 24 24 25 24 23 22
37 37 36 35 35 34 34 33 33 33 32 31 30 29 29 30 31 31 32 32 33 33 33 32 32 31 31 30 30 29 28 28 27 26 25 26 25 25 25 26 26 25 25
37 37 37 37 36 35 35 34 34 33 33 32 31 30 28 28 30 32 32 33 34 35 34 34 34 34 33 32 32 31 30 29 27 27 26 26 26 27 26 26 27 28 27
36 36 36 36 36 36 36 35 35 35 34 33 32 31 30 28 27 30 32 32 32 33 35 35 35 35 34 33 33 33 31 30 29 28 27 27 26 26 27 27 27 29 29
35 35 35 35 36 36 36 36 35 35 34 33 33 32 31 30 28 28 29 31 32 33 34 35 36 36 35 35 35 34 33 31 30 29 28 28 27 27 27 27 28 29 29
35 35 34 34 34 34 34 34 35 35 34 34 34 33 32 30 29 28 28 30 32 33 35 35 36 36 35 36 36 36 35 33 31 31 30 29 28 27 28 28 28 28 29
35 34 33 32 32 32 33 33 33 34 34 34 34 33 33 31 31 30 29 29 30 31 33 35 36 37 36 36 36 36 35 34 32 31 31 30 28 27 27 28 27 28 29
36 36 34 33 32 32 33 33 32 32 33 34 34 34 34 33 32 32 31 30 29 30 32 34 35 36 37 37 37 36 36 35 33 32 31 30 28 27 27 27 26 26 27
38 38 37 36 35 34 33 33 33 33 33 33 34 34 35 35 35 34 33 31 31 32 32 34 35 37 37 38 38 37 36 35 34 33 32 30 29 27 26 26 25 25 25
39 40 40 40 39 37 36 35 34 34 34 34 34 34 35 36 36 36 35 33 31 32 33 33 35 38 38 38 38 38 37 37 36 34 32 31 29 27 26 26 25 25 24
40 41 41 41 41 40 39 39 38 37 36 36 35 35 36 36 37 37 38 36 34 33 34 34 35 37 39 38 38 39 39 38 36 35 33 31 29 27 26 25 24 23 23
41 41 41 41 42 42 41 41 41 41 40 39 39 38 38 38 38 39 39 40 38 36 33 34 36 37 39 39 40 40 39 39 37 36 35 32 30 28 26 24 23 22 21
41 41 41 42 42 42 43 43 43 44 44 43 43 43 42 42 41 41 41 41 41 39 38 36 36 38 40 41 42 42 41 40 39 38 36 34 31 29 27 25 23 21 20
41 41 41 41 41 42 43 44 45 46 47 47 47 47 47 47 47 46 45 43 43 42 41 39 38 40 42 44 44 44 43 42 41 40 37 35 33 30 28 26 24 22 20
41 41 41 41 41 43 44 45 47 48 49 49 50 51 51 51 51 51 50 49 47 45 43 43 42 42 44 46 47 47 46 44 43 41 39 37 35 32 29 27 24 22 20
40 40 40 41 42 43 45 46 48 49 50 51 52 52 53 54 54 55 54 54 52 50 48 46 46 44 46 48 49 48 47 46 44 43 42 40 37 34 31 28 25 22 21
40 40 41 42 43 44 45 46 47 48 50 51 52 53 54 55 56 57 57 58 57 55 53 50 49 48 47 49 49 50 50 48 47 46 44 42 39 36 33 29 26 23 21
40 41 42 42 42 43 44 45 46 47 48 49 50 51 53 54 55 58 59 61 61 60 58 56 54 53 50 50 50 51 52 50 48 47 45 44 41 38 35 31 28 24 22
41 42 41 41 41 42 43 43 43 44 44 45 47 49 50 51 52 56 59 62 64 63 62 60 58 57 54 52 52 52 53 53 51 49 48 46 44 41 37 33 29 26 23
41 41 40 40 40 40 40 40 40 40 41 41 43 45 46 48 49 52 57 60 63 65 64 63 62 60 59 55 54 53 53 53 53 52 50 48 46 43 40 36 32 28 25
40 40 39 39 39 38 38 37 37 36 36 37 38 40 42 43 46 49 53 57 61 65 67 66 66 65 64 60 57 56 55 54 53 52 51 49 47 45 42 38 35 31 28
39 39 38 38 37 36 34 33 33 32 32 32 33 34 36 39 42 46 49 53 58 63 66 68 68 67 66 64 61 58 56 54 52 51 51 50 49 48 44 41 37 34 30

GEFSMA_500_meanwind_048.txt.gz
Wind_Speed
29 29 29 29 29 30 30 30 29 29 28 28 27 26 25 24 22 21 24 26 27 28 28 28 27 26 25 23 22 21 20 19 19 19 19 18 17 16 15 13 11 10 8
31 31 31 31 31 31 31 30 30 29 29 29 29 28 27 24 24 23 24 25 27 29 30 30 30 29 28 26 25 24 23 22 21 22 21 20 19 19 17 16 15 13 11
32 32 32 32 32 32 31 31 31 30 30 30 30 29 28 27 25 24 24 25 27 30 32 32 32 31 30 29 27 26 26 25 24 23 23 22 22 21 20 19 17 16 14
32 33 33 32 32 32 32 32 31 31 30 30 30 29 28 28 27 26 25 25 26 29 31 33 34 34 33 32 29 28 27 27 26 25 25 24 23 23 22 21 20 19 17
33 33 33 33 33 33 33 32 32 31 31 30 29 29 29 28 28 27 27 27 26 28 30 32 34 36 36 34 32 31 29 28 28 27 26 26 25 24 24 23 22 22 21
33 33 33 33 33 33 33 33 33 33 32 31 30 29 29 29 29 28 27 27 28 28 29 30 33 36 38 36 34 33 31 29 29 29 28 27 26 26 25 24 24 24 23
33 33 33 33 34 34 34 34 33 33 32 32 31 30 30 30 29 29 28 28 29 30 29 31 33 36 37 37 36 35 33 31 30 30 30 29 28 28 27 27 26 25 25
32 32 33 33 33 34 34 34 34 33 33 33 32 32 31 31 30 30 30 29 29 31 31 31 34 36 38 38 37 36 34 33 32 32 31 31 30 29 28 28 27 27 27
32 32 32 32 32 32 33 33 34 34 35 34 34 33 32 32 32 31 31 31 31 32 32 33 35 36 38 39 38 38 37 36 34 34 33 32 32 30 30 29 29 28 28
31 31 31 31 31 31 32 32 33 33 34 35 34 34 33 33 33 33 33 32 31 32 32 32 35 36 38 40 39 39 39 38 37 36 36 35 34 33 31 30 30 30 30
31 30 30 31 31 31 32 32 33 33 33 34 34 34 34 34 34 34 34 34 33 32 34 34 34 36 38 40 41 41 41 41 40 39 38 37 36 35 33 32 31 30 30
31 31 31 31 32 32 33 33 34 34 34 34 35 35 35 35 35 35 35 35 34 34 34 34 36 37 38 39 41 42 42 42 41 41 40 39 38 36 35 33 32 31 30
32 33 33 33 34 34 35 35 35 36 36 36 36 36 36 36 37 36 36 36 35 35 36 36 36 38 37 39 41 43 43 43 43 42 41 41 40 38 36 35 33 31 30
33 34 35 36 37 37 37 37 37 37 38 38 38 38 37 37 37 37 37 37 37 37 37 37 37 37 38 38 41 43 43 43 44 43 43 42 41 40 38 37 34 33 31
35 36 37 37 38 38 38 38 38 38 39 39 40 40 39 39 39 39 39 39 39 39 38 38 38 38 39 39 40 42 44 44 44 43 43 43 42 41 39 38 36 34 32
38 38 39 39 39 38 38 38 38 38 38 39 39 40 41 41 41 41 41 41 40 40 39 39 40 40 40 39 39 41 43 44 44 45 44 44 43 42 40 39 37 35 33
40 40 39 39 39 38 38 37 37 37 37 37 38 39 40 41 42 43 43 43 43 42 41 41 41 41 42 41 41 42 43 45 45 45 45 45 44 43 41 39 37 35 33
41 41 40 39 39 38 37 36 36 36 36 37 38 39 40 41 42 43 44 44 45 44 43 43 43 42 42 43 43 43 44 47 46 46 46 45 44 43 41 40 38 36 34
43 42 41 40 39 38 37 37 37 37 37 37 38 39 40 41 42 44 45 46 47 47 45 45 45 45 44 44 43 45 45 47 49 48 47 46 45 44 42 40 38 36 35
44 43 42 41 40 39 38 38 37 37 37 37 38 39 40 42 43 45 46 47 48 49 48 47 47 48 46 45 45 45 45 47 49 49 49 48 46 44 43 41 39 38 35
45 43 43 42 41 40 39 38 37 36 36 37 38 39 40 42 44 46 47 49 50 51 51 49 50 50 49 47 47 46 47 47 48 49 49 49 46 45 44 42 40 38 36
46 44 44 42 41 41 40 38 37 36 36 37 38 39 41 42 44 46 48 50 52 53 54 53 52 52 51 50 49 47 47 48 47 48 49 48 47 46 44 43 41 39 37
46 45 44 42 41 41 40 38 37 36 36 37 38 40 41 42 43 45 47 49 52 54 56 57 56 55 55 53 51 50 48 48 49 49 49 49 48 46 45 43 42 40 38
46 44 43 42 41 40 39 38 38 37 36 36 37 38 40 41 43 44 46 48 51 54 57 59 59 58 58 57 54 52 51 49 49 51 51 50 49 47 46 45 43 41 39
46 44 43 42 41 40 39 38 37 36 35 35 36 37 37 38 40 42 44 46 49 52 56 60 62 62 61 60 58 56 53 51 50 51 52 51 50 48 47 46 44 42 40
45 44 42 42 40 39 38 38 37 36 34 34 34 35 35 35 37 40 41 43 45 50 55 59 63 65 64 63 61 59 55 53 51 51 52 52 51 50 48 47 45 44 42

GEFSMA_500_meanwind_054.txt.gz
Wind_Speed
22 23 23 23 23 24 24 24 25 25 25 25 24 24 23 23 22 21 19 19 19 25 29 29 31 30 29 28 27 25 24 24 23 22 21 20 19 18 17 15 13 11 8
22 23 23 24 24 25 25 26 26 26 26 26 25 25 25 25 24 23 22 21 20 22 29 32 32 33 32 30 29 29 28 27 26 25 24 23 22 21 19 17 15 13 11
22 24 24 24 24 25 26 26 27 27 27 27 26 27 27 26 26 25 25 24 23 23 26 30 33 33 34 34 33 31 31 29 28 28 27 26 24 23 22 20 18 16 14
23 23 24 24 24 25 25 26 27 27 27 27 27 27 27 27 27 27 27 26 26 25 26 29 32 34 35 36 36 35 34 32 31 30 30 28 27 26 24 23 21 19 17
23 24 24 24 24 25 25 25 26 26 27 27 27 27 28 28 28 28 28 28 28 28 27 29 33 35 37 37 38 38 37 36 34 33 32 31 30 28 27 25 23 22 20
23 24 24 24 25 25 25 25 26 26 27 27 28 28 28 29 29 29 30 30 30 30 30 30 32 35 37 39 39 39 40 39 37 36 34 33 32 31 30 28 26 24 22
23 23 24 24 24 25 25 25 25 26 26 26 28 28 29 29 30 30 31 31 31 32 32 32 34 34 36 39 41 41 41 41 40 39 37 35 34 33 32 30 29 27 25
23 23 23 23 24 24 24 25 25 25 25 26 27 27 29 29 30 30 31 32 32 33 34 34 34 36 36 38 39 41 42 42 43 42 40 38 36 34 33 32 30 29 27
23 23 23 23 23 24 24 24 25 25 26 26 26 27 28 30 30 31 32 33 33 34 34 35 35 36 36 37 38 40 42 44 44 44 42 41 39 37 35 33 32 30 29
22 22 22 22 23 23 24 24 25 26 26 27 27 28 29 29 31 32 33 34 35 35 36 37 37 37 37 37 39 40 41 43 44 45 44 43 41 39 38 36 34 32 30
20 20 21 21 22 23 24 25 26 27 27 28 29 29 30 31 31 33 34 35 35 36 37 38 38 38 39 39 39 39 40 42 44 45 45 45 44 41 39 38 36 34 31
20 20 21 21 22 23 24 26 27 28 29 30 31 32 33 33 34 34 35 36 37 38 38 39 40 40 40 40 40 41 41 42 43 45 46 46 44 43 41 40 38 36 33
22 22 23 23 24 25 26 27 28 30 31 32 33 34 35 36 36 37 37 38 39 39 40 40 40 41 42 42 41 43 43 43 43 45 47 47 45 44 42 41 40 38 36
24 25 26 26 27 27 28 29 30 31 32 34 35 36 37 38 39 39 39 40 41 42 42 42 42 42 42 43 42 42 43 45 45 45 48 48 47 46 44 43 42 41 39
26 26 28 29 30 31 31 32 32 33 34 34 36 37 38 40 40 41 41 42 43 44 44 44 44 44 44 44 44 43 43 44 46 46 48 49 48 47 46 45 43 42 40
28 29 30 31 33 33 34 34 34 34 34 35 35 36 38 40 40 41 42 43 44 45 45 46 46 46 46 45 46 44 44 44 46 47 48 49 49 49 48 47 45 43 41
31 31 33 34 35 36 36 36 36 35 35 36 36 36 37 39 40 41 42 43 44 45 46 47 48 47 47 47 46 46 45 45 45 47 48 47 48 49 49 48 47 45 43
33 35 36 37 38 38 38 38 38 37 37 37 37 37 37 38 39 40 41 43 44 45 46 46 48 48 47 47 47 47 46 46 45 45 46 47 48 49 50 49 47 46 44
36 38 39 40 40 40 40 40 39 39 38 37 37 37 37 38 39 40 40 42 43 44 46 46 47 48 48 48 48 46 46 46 47 46 46 47 48 49 50 50 49 47 45
39 40 42 42 42 43 42 41 40 39 38 37 37 36 36 37 37 39 40 41 42 44 45 46 48 49 49 49 49 48 46 47 47 47 46 46 47 48 49 50 49 48 46
41 43 44 44 44 44 43 42 41 39 38 37 36 36 36 36 37 38 39 40 42 43 44 46 47 49 50 50 50 50 48 47 47 47 47 46 46 47 48 50 50 49 47
44 45 46 46 46 45 44 42 40 38 37 36 36 35 35 35 36 37 38 40 41 43 44 46 47 49 50 51 52 52 51 49 47 47 47 46 46 47 49 49 50 49 48
46 47 47 47 46 45 43 41 39 37 36 35 35 35 35 35 36 36 37 39 41 42 44 46 47 49 50 51 52 53 53 50 48 47 47 46 46 47 48 50 50 50 49
48 49 48 47 45 43 41 39 37 35 34 34 34 34 35 35 36 36 37 38 40 41 43 46 47 49 52 53 53 53 53 52 51 49 47 46 46 46 47 49 51 51 51
50 50 48 46 43 41 40 38 36 34 33 33 33 34 34 33 34 35 36 36 38 40 43 45 47 49 52 53 54 54 54 53 52 50 48 46 45 45 46 47 49 50 50
50 49 47 44 42 40 38 37 35 33 33 33 33 33 32 31 32 33 34 36 37 39 42 44 46 49 51 54 56 56 56 56 54 52 50 47 45 44 45 46 47 48 49

GEFSMA_500_meanwind_060.txt.gz
Wind_Speed
18 19 18 19 19 19 19 21 21 21 22 22 21 21 21 21 20 20 19 19 20 19 20 24 26 28 29 27 25 24 23 22 21 20 19 18 17 16 14 13 11 9 7
19 19 19 20 20 21 21 22 22 22 22 22 22 22 22 22 21 22 22 21 21 21 20 22 25 28 30 30 29 28 26 25 24 23 22 21 20 19 17 15 13 11 9
20 20 20 20 21 22 22 22 23 23 23 23 22 23 23 22 22 23 23 23 23 23 22 22 24 28 31 32 32 31 30 28 27 26 25 24 23 21 20 18 16 14 12
20 21 21 21 22 22 22 22 22 22 23 23 23 23 23 24 24 24 24 24 24 25 24 25 24 27 31 33 34 34 33 32 31 29 28 27 26 24 22 21 19 17 15
21 21 22 22 22 22 22 22 22 22 22 23 23 23 23 24 25 25 25 25 25 26 26 26 27 26 29 32 34 36 36 35 34 33 32 30 29 27 26 24 22 20 18
19 20 20 21 21 21 21 21 22 22 22 22 23 23 23 24 25 26 26 26 26 26 27 27 28 28 28 31 33 36 37 37 37 36 35 33 32 30 29 27 25 23 21
18 19 19 19 19 20 20 20 20 21 22 22 23 23 24 24 25 26 27 28 28 28 28 28 29 29 30 31 32 34 37 38 38 38 38 36 35 33 32 30 28 26 24
18 18 18 18 18 18 19 19 19 19 20 21 21 22 23 24 24 25 26 27 28 29 29 30 30 31 31 31 32 35 36 38 39 40 40 39 38 36 35 33 32 30 27
18 18 18 18 18 18 18 19 19 19 19 20 20 21 22 24 24 25 26 27 28 29 30 30 31 32 32 32 33 35 36 38 40 41 42 42 41 40 38 36 35 33 31
19 19 20 20 19 19 19 19 19 19 20 20 20 21 22 23 24 25 27 27 28 30 31 31 31 32 33 34 34 36 36 37 39 42 44 44 44 43 42 40 38 36 34
20 21 21 21 21 21 21 21 21 21 21 22 22 22 23 24 25 26 27 28 29 30 31 32 32 33 34 35 36 36 38 38 39 40 42 45 46 46 45 44 41 38 37
22 22 22 22 23 23 23 23 24 24 24 24 25 25 25 25 27 28 29 30 31 32 33 33 34 35 36 36 37 38 38 39 40 40 41 43 45 46 47 47 45 42 39
23 23 23 23 24 24 25 25 26 27 27 28 28 29 29 29 29 29 30 31 33 34 35 35 36 37 38 38 39 40 40 40 40 41 41 42 43 45 46 48 47 45 43
24 24 24 25 25 25 26 27 28 29 30 31 31 32 32 32 32 32 33 33 34 35 37 38 39 39 40 40 40 41 42 42 43 42 42 42 43 44 45 46 48 48 46
25 25 25 25 26 27 28 29 30 31 32 33 33 34 35 35 36 36 36 36 36 37 38 39 41 41 41 42 42 42 42 43 43 44 43 44 45 46 46 47 48 48 48
25 26 26 27 28 29 30 31 33 34 35 35 36 36 37 38 38 39 39 40 40 39 39 40 42 43 43 43 43 43 43 44 44 45 45 45 45 46 47 47 48 48 48
26 27 28 29 31 32 33 34 35 36 37 38 39 39 39 40 41 41 41 42 42 42 41 41 43 44 44 44 44 44 44 45 45 46 47 47 46 45 46 47 47 47 48
27 28 30 32 33 35 36 37 38 39 40 40 41 42 42 42 42 42 43 43 43 43 43 42 43 44 45 45 45 46 46 45 45 46 47 48 47 46 46 47 46 47 48
29 31 33 34 36 38 39 40 41 42 42 43 43 43 42 42 41 42 42 42 42 42 42 42 42 44 45 46 46 46 47 46 46 46 46 47 48 47 47 46 47 48 49
32 34 35 37 39 41 42 43 44 44 44 44 43 42 41 40 40 39 39 40 40 41 41 41 41 42 44 45 45 46 46 46 46 46 45 45 47 47 47 47 47 48 49
34 36 37 39 41 43 44 45 45 45 44 43 42 40 39 38 37 37 36 37 38 39 40 40 40 41 42 43 44 45 46 46 46 46 45 45 45 47 47 47 46 47 48
36 38 40 42 44 46 46 46 46 44 43 41 40 38 37 36 36 35 35 35 36 36 37 38 39 39 40 41 43 44 45 46 46 47 47 46 45 45 46 48 48 47 48
39 41 43 45 46 48 48 47 46 44 42 40 38 37 36 35 34 33 33 33 34 34 36 36 37 38 39 40 41 42 43 45 45 45 46 46 45 44 44 46 47 48 48
43 45 45 46 48 49 48 47 45 43 41 39 37 35 34 34 33 32 32 32 33 33 34 35 35 36 38 39 41 41 42 43 44 45 46 45 45 44 44 43 44 45 46
45 46 46 48 49 49 48 47 45 42 40 37 35 34 34 33 33 32 33 32 32 32 33 34 34 35 36 38 40 41 42 43 43 44 46 46 45 44 43 42 42 44 45
47 47 47 49 50 49 48 46 44 41 39 36 35 34 34 32 32 32 33 32 32 33 33 33 34 34 35 37 38 40 41 43 43 43 45 46 45 45 44 43 43 44 44

GEFSMA_500_meanwind_066.txt.gz
Wind_Speed
12 12 13 14 15 15 15 15 16 16 16 16 17 18 19 19 20 19 18 18 18 18 17 17 18 20 22 23 22 22 21 20 18 17 16 16 15 15 13 12 10 8 7
11 11 12 13 14 15 15 16 17 17 17 17 17 18 19 19 19 19 19 18 18 18 19 19 19 20 23 25 25 24 24 23 22 20 19 18 17 17 16 14 12 10 8
11 12 13 14 14 14 15 15 16 17 18 18 18 19 19 20 20 20 19 19 19 20 20 20 20 20 22 25 26 27 26 26 25 24 22 21 20 19 18 17 15 13 11
11 12 12 12 13 13 14 15 15 16 17 17 18 18 19 19 20 20 20 20 20 21 21 21 22 22 22 24 26 28 29 29 28 27 26 24 23 21 21 19 18 16 14
10 11 11 12 12 13 13 14 14 15 16 16 17 18 18 18 19 20 20 21 21 21 22 23 22 23 23 24 26 28 29 30 31 30 29 28 26 25 23 22 21 19 17
10 11 11 12 12 12 12 13 13 13 14 15 15 16 17 18 19 19 20 21 21 22 22 23 24 23 24 25 26 27 30 32 32 32 32 31 30 29 27 25 24 22 20
10 10 11 11 12 12 12 12 12 13 13 14 15 15 16 16 17 19 20 21 22 22 23 24 24 25 25 25 26 28 28 31 33 34 34 34 33 32 30 29 27 26 24
9 10 11 11 11 12 12 12 12 12 13 13 14 14 15 16 17 18 19 20 21 22 23 24 25 26 26 27 27 29 30 31 33 35 36 36 36 35 34 32 31 29 27
10 11 11 12 12 12 12 13 13 13 13 13 14 14 15 15 16 17 18 19 20 22 23 24 25 27 27 28 29 30 31 32 33 34 36 38 38 38 37 36 34 32 31
11 12 12 12 13 13 13 14 14 15 15 15 15 15 16 16 17 17 18 19 20 22 23 24 26 27 28 28 29 31 32 33 34 35 36 37 39 40 40 38 37 36 34
12 13 13 13 14 15 15 15 15 15 16 17 17 17 18 18 19 20 20 20 21 23 24 25 26 27 29 29 30 31 32 34 35 36 37 38 39 40 41 41 40 39 37
13 14 15 15 15 16 16 16 17 17 18 18 19 20 20 20 21 22 23 24 24 24 25 26 27 28 29 30 31 32 33 35 36 36 36 37 39 39 40 42 42 41 40
14 15 16 16 17 17 17 18 19 19 20 21 22 22 23 23 24 24 25 26 27 28 28 28 29 30 31 32 32 33 35 36 37 38 38 38 39 40 40 41 43 43 43
14 15 16 17 18 18 19 20 21 22 23 24 24 25 26 27 27 27 28 28 29 31 32 32 32 32 33 34 34 35 36 37 38 39 40 40 41 41 41 41 41 43 44
16 17 17 18 19 20 21 22 23 25 25 26 27 28 28 29 29 30 31 31 32 33 35 36 37 37 36 36 36 37 38 39 39 41 42 42 42 42 42 42 42 43 43
18 19 20 21 21 22 23 24 25 26 27 28 29 30 31 32 33 34 35 35 35 36 37 39 40 41 41 40 39 40 40 41 42 42 43 44 44 44 44 43 44 43 43
20 21 22 23 24 25 26 27 28 29 31 32 32 33 34 34 35 36 37 38 38 38 38 40 42 43 43 43 43 42 42 43 43 44 45 46 46 46 46 46 46 46 44
22 23 24 25 26 27 28 30 32 33 34 35 35 35 35 36 37 37 38 38 39 39 39 39 42 43 44 45 45 45 44 44 45 45 46 47 47 48 48 48 48 47 47
24 25 27 28 29 30 31 33 35 36 36 36 36 37 37 38 38 38 38 38 38 38 38 37 39 41 43 44 45 45 46 45 46 46 47 47 48 49 49 50 50 49 48
26 28 29 30 31 32 34 35 37 38 37 37 38 38 39 39 39 39 38 38 37 37 37 37 37 38 40 42 43 44 44 45 46 47 48 48 49 49 50 50 51 51 50
29 30 31 32 33 34 35 37 38 39 39 39 39 40 40 40 40 39 38 37 37 36 36 35 35 36 37 39 40 41 42 43 44 46 47 48 49 49 50 51 52 52 51
31 32 33 35 36 37 38 38 38 39 40 40 40 41 40 40 40 39 38 36 36 35 35 34 33 33 35 36 38 38 39 40 42 44 46 47 48 49 50 51 52 52 52
34 35 36 37 38 39 39 39 39 40 40 41 41 41 41 41 40 39 37 36 35 35 34 34 33 33 33 35 36 37 38 39 39 42 44 45 47 47 48 50 51 52 52
36 37 38 39 40 41 41 41 41 41 41 42 42 42 42 41 40 39 37 35 34 34 34 33 32 32 33 34 34 35 36 37 38 40 43 43 45 46 47 48 50 52 52
39 39 40 41 42 42 42 42 42 42 42 42 43 43 42 41 40 39 37 35 34 34 33 33 32 32 32 33 34 35 35 36 37 39 41 42 43 46 47 48 49 50 52
41 42 42 43 43 44 44 43 43 43 43 43 43 43 42 40 39 38 37 35 34 33 33 33 32 32 33 33 34 34 35 36 37 38 40 41 43 45 46 47 48 49 50

GEFSMA_500_meanwind_072.txt.gz
Wind_Speed
10 11 11 11 12 13 13 13 13 13 13 13 13 13 13 12 12 13 14 15 15 16 17 17 17 18 19 20 21 20 20 19 18 17 17 16 16 15 13 12 10 8 6
10 10 10 10 11 12 13 13 13 13 13 14 14 14 14 14 14 13 14 15 16 16 16 17 19 19 20 21 21 22 22 22 21 20 19 18 18 17 16 14 12 10 8
8 8 9 9 10 11 11 12 12 12 13 13 13 13 14 14 14 14 15 15 16 17 17 17 18 19 20 22 22 23 24 24 23 22 21 21 20 19 18 17 15 13 11
7 8 9 9 10 10 10 11 11 11 12 13 13 13 13 14 14 14 15 16 17 17 17 17 18 18 20 22 22 23 24 25 25 25 24 23 22 21 21 20 18 16 14
7 7 8 9 10 10 10 10 11 11 11 11 12 12 12 13 13 14 15 16 17 17 18 19 19 19 20 21 22 22 23 27 27 27 27 26 25 24 23 22 21 19 17
6 7 8 8 9 10 10 10 11 11 11 11 11 11 12 12 12 13 13 15 16 17 18 19 19 20 20 21 21 22 22 25 28 29 29 29 28 27 26 25 24 22 21
6 7 7 8 9 10 10 10 10 11 11 11 11 12 12 12 12 12 13 14 15 16 17 18 19 20 21 21 22 23 23 24 27 29 30 31 31 30 30 29 27 25 24
6 7 8 9 9 10 10 10 10 10 11 11 12 12 12 12 12 12 13 14 15 16 17 18 19 20 21 22 23 24 24 24 26 28 30 31 33 33 33 32 31 29 27
6 7 8 9 10 10 10 10 10 10 11 11 12 12 12 13 13 13 13 14 15 16 17 18 19 20 22 23 24 25 25 26 27 27 28 30 32 34 34 34 34 33 31
7 7 8 9 9 10 10 10 11 11 11 12 13 13 13 14 14 14 15 15 16 16 17 19 19 20 22 23 24 25 26 26 28 29 30 30 32 34 35 35 36 36 35
7 7 8 8 9 10 11 11 11 12 12 13 14 14 15 15 16 16 16 17 17 18 19 20 20 21 22 23 24 25 26 27 28 30 31 32 32 33 35 36 37 37 37
7 8 9 9 10 11 11 12 13 13 13 14 15 16 16 17 17 18 18 19 19 20 21 22 23 23 24 25 26 27 28 28 29 31 32 33 34 34 34 36 37 38 39
8 9 9 10 11 11 12 13 14 14 15 16 17 17 17 18 19 20 20 21 21 22 23 24 25 26 27 27 28 29 29 30 31 32 33 34 35 36 36 37 37 39 40
10 10 11 12 12 13 14 15 16 17 17 18 18 19 19 20 21 21 22 23 24 25 26 26 27 28 29 30 31 32 33 33 33 34 35 36 36 38 38 38 39 39 40
12 13 13 14 15 16 17 18 18 19 19 20 20 21 22 22 23 23 23 24 25 26 28 29 29 29 30 32 34 35 36 37 37 37 38 38 38 40 41 41 40 41 41
15 16 16 17 18 19 19 20 21 21 22 23 23 24 25 25 25 25 25 26 26 27 29 31 31 32 33 34 35 37 39 40 41 41 42 42 42 42 42 43 43 43 43
17 18 19 20 20 21 22 23 24 24 25 25 26 27 27 27 28 28 28 28 28 29 29 31 33 33 34 35 37 38 39 41 43 44 44 45 46 46 45 45 45 45 45
20 21 22 22 23 24 25 26 26 27 27 27 28 29 29 30 30 30 30 30 30 31 31 32 33 35 35 36 37 38 39 41 43 45 47 48 49 49 49 48 48 48 48
23 24 24 25 26 27 27 28 28 29 29 30 30 31 32 32 32 32 32 32 32 33 33 33 34 35 36 37 37 37 39 40 42 44 47 49 50 51 52 51 51 50 50
26 27 27 27 28 29 30 30 30 31 32 32 33 33 33 33 33 33 34 34 34 34 35 35 35 36 37 38 38 38 38 39 41 43 45 48 50 52 53 53 53 53 53
29 30 30 31 31 31 32 32 33 33 34 34 35 34 34 34 35 35 35 35 35 35 36 36 36 37 38 39 39 39 38 39 40 41 43 46 48 51 52 54 55 55 55
32 32 33 33 34 34 34 35 36 36 36 37 37 36 36 36 36 37 37 37 37 37 38 38 37 37 38 39 39 39 38 38 39 41 42 43 46 48 51 53 54 55 56
35 35 35 36 36 37 37 38 39 39 38 39 39 39 38 38 38 38 38 38 38 39 39 39 38 39 39 39 39 39 38 38 38 40 41 41 43 45 47 50 52 54 55
37 38 39 39 39 39 40 41 42 41 41 41 41 41 41 40 40 40 40 40 40 40 41 40 39 39 39 39 39 38 38 38 38 39 40 39 41 43 45 47 49 51 53
40 41 41 41 42 42 44 45 45 44 43 43 44 44 44 43 43 43 42 41 41 41 41 41 40 39 39 39 39 38 38 38 37 38 39 39 40 42 43 45 47 49 51
43 44 45 45 46 46 47 48 49 48 47 47 46 47 46 45 45 45 44 43 42 42 42 42 41 40 39 39 39 38 38 38 37 36 38 39 39 41 41 43 45 47 49

GEFSMA_500_meanwind_078.txt.gz
Wind_Speed
6 6 5 5 5 5 5 6 6 6 6 6 6 7 7 8 9 10 10 12 13 14 15 16 16 16 17 18 19 20 20 20 19 18 17 17 16 15 13 12 10 9 7
5 5 4 4 4 5 5 5 6 6 7 7 7 7 8 8 9 10 11 11 13 14 15 16 16 16 17 18 19 20 21 22 22 21 20 19 18 17 16 15 13 11 10
3 3 3 3 4 5 5 5 5 5 6 6 7 7 7 8 9 10 11 12 12 13 14 15 16 16 17 18 18 19 21 22 23 24 23 21 20 19 19 17 16 14 12
3 2 2 3 3 4 5 5 5 5 6 6 6 6 7 8 9 10 11 12 13 13 14 14 15 16 16 17 17 18 21 22 23 25 26 24 23 22 21 20 19 17 15
2 2 2 2 3 3 4 4 5 5 5 6 6 6 6 7 8 9 10 11 12 13 14 15 16 16 16 16 17 17 19 21 24 25 26 27 26 24 24 23 22 20 19
2 1 1 1 2 3 4 4 4 5 5 6 6 6 7 7 8 8 9 10 11 12 14 14 15 16 16 17 17 17 18 19 21 24 26 28 28 27 26 25 25 23 22
1 1 0 1 2 3 4 4 4 4 5 5 5 6 6 7 8 8 9 10 10 12 12 13 14 15 16 17 18 18 18 18 19 21 23 27 29 29 29 29 28 27 25
2 1 0 1 2 3 4 4 4 4 5 5 5 6 6 7 8 8 9 10 10 11 12 13 14 15 15 17 17 18 18 19 19 20 21 24 29 31 31 31 30 30 29
2 1 1 1 2 3 4 4 4 5 5 5 5 6 7 8 8 9 9 10 11 12 12 13 14 15 16 16 17 18 19 19 20 20 21 22 25 30 32 32 32 32 32
3 2 1 1 1 2 3 4 4 5 5 6 6 7 8 9 10 10 10 11 11 12 13 14 15 15 16 17 18 18 19 20 21 21 22 23 23 26 29 31 32 33 33
3 3 2 2 3 3 4 4 5 6 6 7 7 8 9 10 10 11 11 12 12 13 14 15 16 17 18 18 19 20 20 21 22 23 24 24 25 26 27 29 31 33 34
4 4 4 4 5 5 6 6 7 7 8 9 9 10 10 11 12 12 13 14 14 15 16 17 17 18 19 20 21 21 22 22 23 23 24 25 27 28 29 29 29 32 34
6 6 6 7 7 8 8 9 9 10 10 11 12 12 13 14 14 15 15 16 16 17 18 18 19 20 20 21 22 23 24 25 25 26 26 27 27 28 29 31 31 32 34
9 9 9 9 10 11 11 11 12 12 13 13 14 14 15 16 17 18 18 19 19 19 19 20 20 21 22 22 23 25 25 26 27 28 29 30 30 31 31 32 33 34 34
12 12 12 13 13 13 14 15 15 16 16 16 17 17 18 18 19 19 20 21 21 22 22 22 22 22 23 23 24 25 26 27 29 30 32 33 33 34 34 35 35 36 36
15 15 16 16 17 17 17 18 19 19 19 19 19 20 20 20 20 21 22 22 23 24 25 25 24 24 24 25 26 27 28 29 30 31 33 34 36 37 38 38 39 39 39
18 19 19 20 20 20 21 21 22 22 22 22 23 23 23 23 23 24 24 25 25 25 26 27 27 27 27 26 26 28 29 30 31 32 33 35 37 38 39 41 41 42 43
22 22 23 23 23 23 24 24 24 25 25 25 25 25 26 26 26 26 26 27 27 27 27 28 28 29 29 28 28 29 30 30 32 33 34 35 37 38 40 41 43 44 45
25 25 26 26 26 26 26 27 27 27 28 28 28 28 28 28 28 28 28 28 28 28 29 29 30 30 30 30 30 30 31 31 32 33 34 35 37 38 40 42 43 45 46
27 28 28 29 29 28 29 29 29 30 30 30 30 29 30 30 31 31 31 31 31 31 31 31 32 32 32 32 32 32 32 32 32 33 34 35 36 38 40 42 43 45 46
30 31 31 31 31 31 31 31 32 32 32 32 32 32 32 32 33 33 34 33 33 33 34 33 33 34 35 35 34 34 34 34 34 35 35 36 37 38 40 42 43 45 46
32 33 32 32 33 33 33 34 34 34 34 34 34 34 35 35 35 36 36 36 36 36 36 36 36 36 37 37 37 37 36 36 36 36 37 38 38 39 40 41 43 44 45
34 34 34 34 34 35 36 37 37 37 37 36 37 38 38 39 38 39 39 39 39 39 39 39 39 39 39 39 40 39 38 37 37 38 39 39 40 40 40 41 42 44 45
36 37 37 37 37 38 39 40 41 42 41 41 41 42 42 42 42 43 43 42 42 42 43 43 42 42 42 42 42 42 41 40 39 40 40 40 40 41 41 41 41 43 44
39 40 40 41 41 42 42 43 45 45 46 46 46 46 46 46 46 47 47 46 46 45 45 45 45 44 44 44 44 44 43 42 41 41 41 41 41 42 41 41 42 42 43
42 43 43 44 45 45 46 47 49 50 51 50 50 50 50 49 50 51 51 51 49 48 49 49 48 47 46 46 46 45 45 44 43 42 42 42 42 42 41 41 42 43 43

GEFSMA_500_meanwind_084.txt.gz
Wind_Speed
6 5 5 4 4 4 3 3 3 4 5 5 5 5 6 7 7 8 9 10 10 11 12 12 13 13 14 14 14 16 18 18 18 17 16 15 14 13 11 10 8 7 6
5 5 4 4 3 3 3 3 3 3 4 4 4 5 5 6 7 7 8 9 9 10 11 12 12 13 14 14 15 15 17 19 20 19 18 18 16 15 14 13 11 10 9
4 4 3 2 2 2 2 2 3 3 3 3 3 4 5 5 6 7 7 7 8 9 10 11 12 12 13 14 15 15 16 18 19 20 20 20 19 18 17 16 15 13 11
3 3 2 2 1 1 1 2 2 3 3 3 3 4 4 5 5 6 6 7 7 8 9 10 10 11 12 13 13 14 14 17 18 20 21 21 21 21 20 19 18 16 15
3 2 2 1 1 1 1 2 2 2 3 3 3 4 4 4 5 5 6 6 7 7 8 9 9 10 11 12 13 14 14 16 17 18 20 21 22 23 23 22 20 19 18
3 3 2 2 1 1 1 2 2 3 3 3 3 3 3 4 5 5 6 6 7 7 7 8 9 9 10 10 11 12 13 13 15 17 18 20 22 22 24 24 23 22 21
4 3 3 2 1 1 1 2 3 3 3 4 4 4 4 4 5 5 6 6 7 7 7 7 8 8 9 9 10 11 12 12 13 14 17 19 21 21 23 25 25 25 24
4 4 3 2 1 1 1 2 3 3 4 4 4 4 5 5 6 6 6 6 7 7 8 8 8 9 9 9 10 11 12 12 13 14 14 16 18 21 22 23 25 26 26
5 4 3 2 1 0 1 2 3 3 4 4 5 5 5 6 6 7 7 7 8 8 9 9 9 10 10 11 11 11 12 12 13 14 15 15 16 18 21 23 25 27 27
5 5 4 3 2 1 1 2 2 3 4 4 5 6 6 7 7 8 8 9 9 10 10 10 10 11 11 12 12 12 13 13 14 14 15 15 16 17 19 21 22 25 28
6 5 5 4 3 3 3 4 4 4 5 5 6 7 8 9 9 9 10 10 11 11 12 11 11 12 13 13 14 14 14 15 15 16 16 17 17 17 18 20 21 23 25
7 7 6 5 5 5 6 6 7 7 7 8 9 9 10 11 11 11 12 12 13 13 14 14 14 14 14 14 15 15 16 16 17 17 18 18 19 19 20 20 21 22 24
8 8 7 8 8 8 9 9 10 10 11 11 12 12 13 13 13 14 14 15 15 15 15 16 16 16 16 16 17 17 17 18 18 19 19 20 20 21 21 22 23 23 24
10 9 9 10 10 11 11 12 13 13 14 14 15 15 16 16 16 17 17 18 18 17 17 17 18 19 19 19 19 19 19 19 20 20 21 21 22 22 23 24 24 25 26
11 11 12 12 13 13 14 15 15 16 17 18 18 18 19 19 20 20 20 20 21 20 20 19 19 20 21 21 21 22 22 22 22 22 22 23 24 24 25 25 26 27 27
13 14 14 15 15 16 17 17 18 19 20 20 21 21 22 22 23 23 24 24 24 24 24 23 22 22 22 23 23 24 24 24 25 25 25 25 25 26 26 27 28 29 29
15 16 17 17 18 19 20 20 21 22 23 23 24 24 24 25 25 26 26 27 27 27 27 27 26 25 25 25 25 25 26 26 26 27 27 27 27 27 28 28 29 30 31
18 18 19 20 21 22 22 23 24 24 25 25 26 26 26 27 27 28 28 29 29 30 30 30 30 29 28 28 28 28 28 28 28 28 28 28 28 29 29 29 30 31 32
20 21 22 22 23 24 24 25 26 26 27 27 28 28 29 29 29 30 30 31 32 32 32 32 32 32 32 32 31 31 31 31 30 30 29 30 30 31 30 30 31 31 31
23 24 24 25 25 26 27 27 28 29 29 30 30 31 31 31 32 33 33 34 34 34 34 34 34 35 35 35 34 34 33 33 33 33 32 31 32 32 32 32 32 32 33
25 26 26 27 27 28 29 30 31 31 31 32 32 33 34 34 35 36 36 36 37 37 38 38 38 37 37 38 38 37 36 36 35 35 35 34 34 34 34 34 34 34 34
27 28 28 29 30 30 31 32 33 33 34 34 35 35 36 36 37 38 39 40 40 40 40 41 41 40 40 41 41 40 39 39 37 37 37 36 36 36 36 35 35 36 36
31 31 31 32 32 33 34 35 36 37 37 37 38 39 39 40 41 41 42 43 43 44 44 44 44 43 44 44 44 43 43 42 41 40 41 39 38 38 38 38 37 37 37
35 35 34 35 36 37 37 37 39 39 40 40 41 42 43 43 44 45 46 46 46 47 47 47 47 47 47 47 48 47 46 45 44 43 44 43 41 41 40 40 39 39 39
38 37 37 38 39 39 40 41 41 42 43 43 43 44 45 46 47 48 49 50 49 49 49 50 51 51 50 50 50 50 49 49 47 45 45 46 44 43 43 42 42 41 40
38 38 39 40 40 41 41 42 44 45 45 46 46 47 48 49 49 51 52 52 53 52 53 54 54 54 53 52 52 53 53 52 51 48 47 48 47 46 45 44 44 43 42

GEFSMA_500_meanwind_090.txt.gz
Wind_Speed
7 6 5 5 5 4 5 5 5 5 5 4 4 3 3 3 4 4 5 6 6 7 8 8 9 9 10 10 10 11 12 13 14 14 13 13 12 11 10 9 8 8 7
6 5 4 4 3 3 3 3 3 3 3 3 3 3 3 3 3 3 3 4 5 6 7 8 8 9 10 10 11 11 12 14 15 15 15 15 15 14 13 12 11 10 9
5 5 4 3 2 2 2 2 2 2 2 2 2 2 2 2 2 3 3 3 4 5 6 6 7 8 9 10 10 11 11 13 15 16 17 17 17 17 16 15 14 13 12
5 4 4 3 3 2 2 2 2 1 1 1 1 2 2 2 2 2 2 3 3 3 4 5 5 7 8 9 10 10 11 12 14 15 16 17 18 19 19 18 17 16 15
5 5 5 4 4 3 2 2 1 1 0 0 1 1 1 1 1 1 2 2 1 2 3 3 4 5 6 7 8 9 10 11 12 14 16 17 18 19 20 20 19 19 18
7 7 6 5 4 4 3 2 1 1 1 1 1 1 2 2 2 2 2 2 1 1 2 3 3 4 4 5 7 7 9 10 11 12 14 16 17 19 20 21 21 20 20
8 8 7 6 5 4 3 2 2 2 1 1 1 2 2 2 2 2 2 2 2 2 2 2 3 3 4 4 5 6 7 9 10 11 12 14 16 17 18 20 21 21 22
9 9 8 7 6 5 4 3 2 2 2 2 2 2 2 2 2 2 2 2 2 3 3 3 3 3 4 4 5 6 6 7 8 9 11 13 15 16 17 19 20 21 22
10 9 9 8 7 5 5 4 3 2 2 2 2 2 1 1 2 2 2 2 3 3 3 4 4 4 4 5 5 6 6 7 8 8 9 11 13 15 17 18 20 22 23
11 10 9 8 7 6 5 4 3 2 1 1 0 0 1 1 2 2 2 3 3 3 4 4 4 4 5 5 6 6 7 8 8 9 10 10 11 13 15 17 19 21 23
11 11 10 9 8 8 6 5 4 3 3 2 2 2 2 3 3 3 4 4 4 5 5 6 6 6 6 6 7 8 8 9 9 10 11 11 12 12 13 14 16 18 21
12 12 11 10 10 9 8 7 6 6 5 5 5 5 5 5 5 6 6 6 7 7 7 7 8 8 8 8 9 9 9 10 11 11 12 13 13 14 15 15 16 17 19
13 12 12 11 11 11 10 9 9 9 9 8 8 8 8 8 8 9 9 10 10 10 10 10 10 10 10 10 11 11 11 12 12 13 13 14 15 16 16 17 18 19 20
14 13 13 13 12 12 12 12 12 12 12 12 12 12 12 12 12 12 13 13 13 13 13 13 13 13 13 13 13 13 14 14 14 14 15 16 17 17 18 19 19 20 21
15 15 15 14 14 15 14 14 14 14 14 14 14 14 15 15 15 15 16 16 16 16 16 16 16 16 16 17 16 16 17 17 17 17 17 18 18 19 20 20 21 22 23
17 17 16 17 17 17 17 17 17 17 17 17 17 17 18 18 18 19 19 19 19 19 19 19 19 19 19 20 20 20 20 20 20 20 20 20 21 21 22 22 23 23 24
18 18 18 19 19 19 19 20 20 20 20 20 20 21 21 21 21 22 22 22 22 22 22 22 22 22 22 23 23 23 23 23 23 23 23 23 23 24 24 25 25 26 26
20 20 20 20 21 21 22 22 23 23 23 23 23 23 24 24 25 25 25 25 25 25 25 25 25 25 25 26 26 26 27 27 27 27 27 27 27 27 27 27 27 28 29
21 21 22 22 23 24 24 24 25 25 25 25 25 26 26 27 28 28 29 29 29 29 29 29 29 29 29 29 29 30 30 30 30 30 30 30 30 30 30 30 30 30 31
22 23 24 25 26 26 26 27 27 27 28 28 28 29 29 30 30 31 32 32 32 32 33 32 32 33 33 33 33 33 33 33 33 34 33 33 33 33 34 33 33 33 33
24 26 26 26 27 28 29 29 29 29 30 30 31 31 32 33 33 34 35 35 35 35 35 36 36 36 36 37 37 37 37 36 36 37 37 36 36 36 37 37 37 36 36
27 28 28 29 30 31 32 33 33 33 33 33 34 34 35 36 37 37 38 38 38 39 39 39 40 39 39 41 41 41 41 40 39 40 41 39 40 39 39 40 39 39 39
29 31 32 32 33 34 34 35 36 36 36 36 36 37 37 39 40 41 41 42 42 42 42 43 43 42 42 43 45 45 45 45 43 42 44 42 43 42 42 43 43 42 42
30 31 32 34 35 34 34 35 36 36 37 38 39 40 41 42 42 43 43 44 44 44 45 45 46 45 45 46 48 48 49 49 48 47 48 47 46 46 46 46 46 46 45
31 33 34 34 35 35 36 36 36 37 38 39 40 40 41 42 42 44 45 45 45 46 47 48 49 49 49 50 52 53 53 54 52 51 52 52 50 51 50 50 49 49 48
33 34 34 33 34 35 37 38 39 39 40 41 42 42 42 43 43 45 46 47 48 49 50 51 52 53 54 55 56 57 58 58 58 56 56 57 56 57 55 53 53 53 52

GEFSMA_500_meanwind_096.txt.gz
Wind_Speed
6 5 5 6 5 4 3 3 3 2 2 2 2 2 3 3 3 3 3 4 5 6 7 8 9 9 9 10 10 10 10 11 11 11 11 11 10 9 8 8 7 6 5
6 6 5 5 4 3 2 2 2 1 1 2 2 2 2 2 2 2 2 3 4 5 6 8 9 9 10 10 11 11 11 11 12 12 13 12 12 12 11 10 9 9 8
7 6 5 5 4 3 2 2 1 1 1 1 2 2 1 1 2 2 2 3 4 5 5 6 8 9 9 10 11 12 12 12 12 13 14 14 14 14 14 13 12 11 10
7 6 6 5 4 3 2 1 1 1 1 1 1 1 1 1 1 1 2 2 3 4 4 5 6 7 9 9 10 11 12 12 12 13 13 14 15 15 16 16 15 14 13
8 6 6 5 4 3 2 2 2 1 1 1 1 1 1 1 1 1 1 1 2 3 3 4 5 6 7 8 9 10 11 11 12 13 13 14 15 16 16 17 17 17 16
9 8 7 6 5 4 3 2 2 1 1 1 1 1 1 0 0 0 0 0 1 1 2 3 4 4 5 6 7 8 9 10 11 12 13 14 15 16 16 17 18 18 18
10 9 8 7 6 5 4 3 2 2 1 1 1 1 1 1 1 1 0 0 1 1 1 2 3 3 4 5 5 6 7 8 9 10 11 12 14 15 16 16 18 19 19
11 11 9 8 7 6 5 4 2 2 1 1 1 1 1 1 1 1 1 1 1 1 2 2 2 3 4 5 5 6 6 7 8 9 9 11 12 13 15 16 17 18 19
13 12 10 9 8 6 5 5 3 3 2 1 1 1 1 1 2 2 2 2 2 2 2 2 3 3 4 5 5 6 6 7 8 8 9 9 11 12 13 15 16 18 19
14 12 11 10 9 7 6 6 5 4 3 3 2 2 2 2 3 3 3 3 3 3 3 4 4 5 5 6 6 7 7 8 8 9 9 10 11 11 12 14 15 16 18
14 13 12 11 10 9 8 7 7 6 5 5 4 4 4 4 5 5 5 6 6 6 6 6 6 7 7 8 8 9 9 10 10 10 11 11 11 12 13 13 14 16 17
14 14 13 12 11 10 10 9 9 8 8 7 7 7 7 7 8 8 8 9 8 8 9 9 9 9 9 9 10 10 11 11 11 12 12 13 13 14 14 14 15 16 17
14 14 13 13 12 12 11 11 11 11 11 10 10 11 11 11 11 11 11 12 12 12 12 12 12 13 13 13 13 13 13 13 13 14 14 14 15 15 15 16 16 17 18
14 14 14 14 13 13 13 13 13 13 13 14 14 14 14 14 15 14 15 15 15 16 16 16 16 16 16 16 16 16 16 16 17 17 17 17 17 18 18 18 19 19 20
15 15 15 15 15 15 15 16 16 16 16 17 17 17 17 18 18 18 18 19 19 19 19 19 20 20 20 20 20 20 20 20 20 20 20 21 21 21 21 21 21 21 22
16 16 17 17 17 17 18 18 18 19 19 20 20 21 21 21 21 21 21 22 22 22 23 23 23 23 23 23 23 23 23 24 24 24 24 24 24 24 24 24 24 25 25
17 18 19 19 20 20 20 21 21 22 22 23 23 24 24 24 25 25 25 25 25 25 26 26 26 26 27 27 27 27 27 27 28 28 28 28 28 28 28 28 28 28 28
19 20 20 21 22 23 23 24 24 25 26 26 27 27 28 28 28 28 28 28 28 28 28 29 29 30 30 30 30 31 31 31 31 31 31 31 31 32 32 32 32 32 32
21 21 22 23 24 25 26 26 27 27 29 30 30 30 31 31 32 32 32 32 32 32 32 32 33 34 34 34 35 35 35 35 35 35 35 35 35 35 35 35 36 36 36
22 23 24 25 26 26 27 29 30 31 32 33 33 34 35 34 34 34 35 35 36 36 36 36 36 37 37 38 38 39 39 39 39 39 39 39 39 39 39 39 39 39 39
23 24 26 27 28 29 30 31 33 34 35 36 37 37 37 37 37 37 38 38 39 39 40 40 39 40 40 41 41 42 41 41 41 42 42 42 43 42 42 42 43 43 43
24 25 27 29 31 32 33 34 35 36 38 38 39 40 40 40 41 41 41 42 42 43 43 43 43 43 42 44 44 45 45 44 44 43 45 45 45 45 45 45 46 46 46
26 27 29 31 32 34 35 36 38 39 40 41 42 43 43 43 43 44 45 45 45 46 46 47 47 46 46 46 48 48 49 49 48 47 48 47 47 48 48 49 49 49 49
28 29 31 32 34 35 36 37 38 40 41 43 44 45 45 46 46 46 47 48 49 49 50 50 50 50 50 51 52 52 52 52 52 51 52 51 50 51 52 52 53 53 53
31 32 33 34 35 36 36 38 39 40 42 43 44 45 45 46 46 48 49 49 50 51 52 52 52 53 53 54 55 55 55 55 55 54 55 56 55 56 55 55 56 57 58
33 33 35 36 37 38 39 41 42 43 44 45 45 45 46 47 48 49 50 50 50 51 52 52 53 54 55 56 57 58 59 60 60 59 60 61 61 62 60 59 60 61 62

GEFSMA_500_meanwind_102.txt.gz
Wind_Speed
7 6 5 4 3 3 3 3 2 2 2 2 2 3 3 3 3 3 4 5 6 6 7 9 10 11 12 12 12 12 12 12 12 12 12 12 11 10 10 9 8 7 6
8 6 5 4 3 3 3 2 2 2 2 2 2 2 2 2 2 3 3 4 5 6 7 8 9 10 12 12 13 14 13 13 13 13 13 13 13 12 12 11 10 9 8
8 7 6 4 3 3 3 3 2 2 2 2 2 2 2 2 2 2 3 3 4 5 6 7 9 10 11 12 12 13 14 14 13 13 14 14 14 14 13 13 13 12 11
8 7 6 5 4 4 3 3 2 2 2 2 2 2 1 1 1 2 2 3 3 4 4 5 7 8 9 10 11 12 13 13 14 14 14 15 15 15 15 14 14 15 14
9 8 7 6 5 5 4 4 3 2 2 2 2 1 1 1 1 1 1 2 3 3 4 4 5 6 7 8 9 10 10 11 12 13 13 14 14 15 16 15 15 15 16
10 9 8 7 6 6 5 4 3 3 2 2 1 1 1 1 1 1 1 2 2 3 3 3 4 4 5 6 6 6 7 8 10 11 12 13 14 15 16 16 16 16 16
11 10 9 8 7 6 5 4 4 3 3 2 2 2 1 1 1 2 2 2 2 3 3 4 4 4 4 5 5 6 6 6 8 9 11 12 13 14 15 16 16 16 17
12 11 10 9 8 7 6 5 5 4 3 3 3 2 2 2 2 2 3 2 3 3 3 4 4 5 4 5 5 6 6 7 8 8 8 9 11 12 13 14 14 15 16
13 12 11 11 9 8 7 6 5 5 4 4 3 3 3 2 3 3 3 4 4 4 5 5 5 5 6 6 6 6 7 7 7 8 9 9 10 11 12 13 13 14 15
13 13 12 12 10 9 8 7 7 6 6 5 4 4 4 3 3 4 4 5 5 6 6 6 7 7 7 8 8 8 9 9 9 9 10 10 10 11 12 13 13 14 15
15 14 13 13 12 11 10 9 8 8 7 6 6 6 5 5 5 6 6 7 8 8 9 9 9 9 10 10 10 11 11 11 12 12 12 12 12 12 13 13 13 14 15
15 14 14 13 13 12 11 11 10 9 9 8 8 8 8 8 8 9 9 9 10 10 11 11 12 12 12 12 12 13 13 13 14 14 15 14 14 14 15 15 15 15 16
15 15 15 14 14 13 13 12 12 11 11 11 11 11 11 11 11 12 12 12 13 13 14 14 14 15 15 15 15 16 16 16 16 16 17 17 17 17 17 17 18 18 18
15 15 15 15 15 15 14 14 14 13 13 13 14 14 14 14 15 15 15 16 16 17 17 17 18 19 19 19 19 19 19 19 19 19 19 19 20 20 20 20 20 20 20
15 15 15 16 16 16 15 16 16 16 16 16 16 17 17 17 18 18 18 19 20 20 21 21 22 22 23 23 23 23 22 22 22 22 23 23 23 23 23 23 23 23 23
16 15 15 16 17 17 18 18 19 19 19 19 20 20 20 21 21 22 22 23 24 24 25 25 25 26 26 26 26 27 27 26 26 26 26 26 26 26 27 27 27 27 27
16 16 16 17 18 19 19 20 21 21 21 22 22 23 24 24 24 25 26 27 27 28 28 29 29 29 30 30 30 31 31 30 30 30 30 30 30 31 30 30 30 30 30
16 16 17 18 19 20 20 21 22 23 24 24 24 25 26 27 28 28 29 30 31 31 32 32 33 33 33 34 34 34 34 34 34 34 34 34 34 34 35 34 35 35 35
17 17 18 19 20 21 22 23 24 25 26 27 28 29 29 30 31 32 32 32 33 34 35 35 36 37 37 38 38 38 38 37 37 38 38 38 38 38 38 38 38 38 38
18 19 19 20 21 22 23 25 26 27 28 29 30 31 32 33 34 35 35 36 37 38 38 38 39 40 40 41 41 42 42 42 42 42 42 42 42 41 41 41 41 41 41
19 20 20 21 22 23 25 26 27 28 30 31 32 34 35 35 37 37 38 39 40 41 41 42 42 43 43 43 43 44 44 44 45 44 44 44 45 44 44 44 44 44 44
20 20 21 22 24 25 26 27 29 31 32 33 34 35 37 37 38 39 40 41 43 44 44 45 45 45 45 46 46 47 47 48 47 46 46 46 47 47 47 47 47 46 46
20 21 23 24 25 26 28 30 32 33 34 35 36 37 39 39 41 42 43 44 45 46 47 48 48 47 47 48 48 49 49 49 48 49 50 48 49 50 50 50 50 50 50
22 23 25 26 28 30 31 33 34 36 37 38 39 40 41 42 43 44 46 46 47 47 47 48 49 50 51 51 52 52 53 53 52 52 53 53 52 53 54 54 54 54 55
24 26 27 29 31 32 34 36 37 38 39 40 42 43 44 45 46 47 48 48 49 49 50 50 50 51 52 52 53 54 54 55 54 54 55 55 54 55 55 55 55 56 56
26 28 30 31 33 35 36 37 39 40 41 43 44 45 45 46 48 49 51 51 52 52 53 53 53 54 55 55 55 56 55 55 56 56 56 57 57 57 57 57 57 58 58

GEFSMA_500_meanwind_108.txt.gz
Wind_Speed
10 8 7 6 5 4 3 3 2 2 2 1 1 2 2 2 2 3 3 4 4 5 5 5 7 8 9 9 9 10 11 11 10 10 10 9 9 8 8 8 7 7 6
9 8 7 6 5 4 4 3 3 2 2 1 1 1 1 1 1 2 2 3 3 4 5 5 6 7 7 9 10 11 12 12 11 11 11 11 11 11 10 10 10 9 8
9 7 7 6 5 4 4 3 3 2 2 2 1 1 1 0 0 1 2 2 3 3 4 4 5 6 6 7 8 9 10 12 12 13 13 13 13 13 12 11 11 11 11
9 8 7 6 5 5 4 3 3 2 2 2 1 2 2 1 1 1 1 2 2 2 2 3 4 4 5 6 7 8 9 10 12 12 13 13 14 14 14 13 12 12 12
9 8 7 6 6 5 4 4 3 3 2 2 2 2 1 1 1 1 1 1 2 2 3 3 3 4 4 5 5 6 6 7 9 10 11 12 12 13 14 14 14 14 14
10 9 7 7 7 6 5 4 4 3 3 2 2 1 1 0 1 1 1 2 2 3 3 4 4 4 4 4 4 5 6 6 7 7 9 10 11 12 12 14 14 14 14
10 10 9 8 8 7 6 5 4 3 3 2 2 1 1 1 1 1 1 1 2 3 3 4 5 5 4 4 4 4 5 5 5 6 7 8 10 11 12 12 13 14 15
11 10 10 9 9 8 7 6 5 4 3 2 2 1 2 1 1 2 2 2 2 3 3 4 5 6 6 5 5 4 5 5 5 5 5 6 7 8 10 11 12 13 14
13 11 10 10 10 9 8 7 6 5 4 3 2 2 2 2 2 2 2 2 3 3 4 5 5 5 6 6 6 6 6 6 6 6 6 6 6 7 8 9 11 12 12
14 13 11 11 10 9 9 8 7 6 5 5 4 4 3 3 3 3 3 4 4 4 5 5 6 6 7 7 7 7 7 7 7 7 7 7 7 8 9 9 10 10 11
15 14 13 12 11 10 10 9 8 8 7 6 6 6 6 6 6 6 6 6 6 6 7 7 8 8 8 8 9 9 9 9 10 10 10 10 11 11 11 11 12 12 12
15 15 14 13 12 12 12 11 10 10 9 8 8 8 8 9 9 9 9 9 9 10 10 11 11 11 11 11 11 12 12 12 12 12 12 13 13 13 13 14 13 13 14
15 14 14 14 14 14 13 12 12 12 11 11 11 11 11 12 12 12 12 13 13 13 14 14 14 15 15 15 15 15 15 15 15 16 15 15 15 16 16 16 16 16 16
15 15 15 14 14 15 14 14 14 14 14 14 14 14 14 14 15 15 16 16 16 16 17 17 18 18 19 19 19 19 19 19 19 19 19 19 19 19 19 19 19 19 19
15 15 15 15 15 15 16 16 15 15 16 16 16 16 17 17 18 19 19 20 20 20 20 21 21 21 22 22 22 23 23 23 23 24 23 23 23 23 23 23 23 23 23
16 16 16 16 16 16 16 17 17 17 18 18 18 19 20 20 20 21 22 23 23 24 24 25 25 25 25 26 26 26 27 27 27 27 27 27 27 27 27 27 27 26 26
16 17 16 16 16 16 16 17 18 18 19 20 20 22 22 23 23 24 25 26 27 27 28 29 29 29 29 30 30 30 30 31 31 31 31 31 31 31 31 31 31 31 31
16 16 16 16 16 17 17 18 18 19 20 21 23 24 25 26 26 27 28 29 30 31 32 32 33 33 33 34 34 34 34 35 35 35 35 35 35 35 35 35 35 35 35
17 17 16 17 17 18 18 19 20 21 21 23 24 25 26 27 28 29 31 32 33 33 34 35 35 37 37 37 37 38 38 39 39 39 39 38 38 39 39 40 40 39 39
17 17 18 18 19 20 20 21 22 22 23 24 25 27 28 28 30 31 32 33 35 36 37 37 38 39 40 40 40 40 41 41 42 43 42 42 41 41 42 43 43 43 43
17 19 19 19 20 21 22 23 23 24 25 26 27 28 29 31 32 34 35 36 37 38 39 40 41 41 42 42 43 43 43 44 44 45 45 45 45 45 45 46 46 46 46
19 20 21 21 21 21 22 23 24 25 26 27 28 30 31 31 33 35 37 38 39 40 41 42 43 44 44 45 46 47 47 47 47 47 49 49 49 48 48 48 48 48 48
19 20 21 21 22 23 23 25 26 28 28 29 30 31 32 34 35 36 38 39 41 42 43 44 45 46 47 48 49 49 50 51 50 50 51 50 50 51 50 50 50 50 51
20 20 21 22 23 24 26 27 28 29 31 32 33 34 35 37 39 40 41 42 43 45 46 47 49 50 51 52 53 53 54 55 54 54 54 54 53 54 54 53 53 52 53
22 23 24 24 25 26 27 29 31 32 34 35 36 38 39 41 42 43 44 46 47 48 49 51 52 53 54 55 56 57 57 57 57 57 58 58 58 57 56 55 55 55 55
24 25 26 27 27 28 29 31 33 35 36 38 39 41 42 43 45 46 47 49 50 51 52 53 55 56 57 58 59 59 59 59 59 58 59 60 60 59 58 56 56 56 56

GEFSMA_500_meanwind_114.txt.gz
Wind_Speed
10 9 9 8 7 6 6 5 4 3 2 2 2 2 3 3 3 2 2 2 2 3 3 4 5 5 6 8 8 8 9 10 10 10 10 9 9 9 8 8 8 7 7
10 10 9 8 7 6 5 5 4 4 3 2 2 2 2 3 3 2 2 1 2 2 3 3 4 4 5 7 7 8 8 10 10 11 11 11 11 11 10 10 9 9 9
11 10 9 8 7 7 6 5 5 4 4 3 3 2 2 2 2 2 2 1 1 1 1 2 3 3 4 5 6 7 8 9 10 10 11 12 12 12 12 12 11 11 11
12 10 9 8 7 7 7 6 5 5 4 4 3 3 3 3 3 2 1 1 1 1 1 0 1 2 3 4 5 6 7 8 9 10 10 11 11 12 13 13 13 13 12
13 11 10 8 8 8 8 7 6 5 4 4 4 4 3 3 3 2 2 1 1 1 1 1 0 1 1 3 3 4 5 6 7 8 9 10 11 11 12 13 14 14 13
14 13 11 9 9 9 8 7 6 6 5 5 5 4 3 3 3 2 2 2 2 1 1 1 1 1 0 1 2 2 3 4 5 6 8 8 10 11 12 12 12 13 14
14 13 12 11 10 10 9 8 7 6 6 5 5 4 4 3 3 3 2 2 2 1 1 1 2 2 2 1 0 1 2 3 4 5 6 7 8 9 11 12 13 13 13
15 14 13 12 11 11 10 9 8 7 7 6 6 5 4 4 3 3 2 2 2 1 1 0 0 1 1 2 2 2 2 3 3 5 6 7 7 7 9 11 12 12 13
15 15 14 13 12 12 11 10 9 8 7 7 6 6 5 4 3 3 3 3 2 2 1 1 2 2 2 2 3 4 4 4 4 4 5 6 6 7 7 8 9 11 12
17 16 15 14 13 13 12 11 10 9 9 8 7 7 6 5 4 4 3 3 3 3 3 3 3 4 4 4 4 5 5 5 6 6 6 7 7 8 8 9 10 11 11
17 17 16 15 14 14 13 12 11 11 10 9 8 7 7 6 6 6 6 5 5 5 5 6 6 6 7 7 7 7 7 7 8 8 8 9 9 9 10 10 11 12 13
18 18 17 16 15 14 14 13 12 12 11 10 10 9 8 8 8 8 8 8 8 8 8 9 9 9 9 10 10 10 10 10 11 11 11 12 12 13 13 13 14 15 15
19 18 18 17 16 15 14 14 13 13 13 12 12 11 10 10 10 10 10 10 10 11 11 11 11 12 12 13 13 13 14 14 14 15 15 16 16 16 16 17 17 18 18
19 19 18 18 17 16 16 15 14 14 14 14 14 13 13 13 13 12 12 12 13 13 14 14 14 15 15 16 16 17 17 17 18 18 19 19 20 20 20 21 21 21 21
19 19 19 18 17 17 17 16 16 15 15 15 15 15 15 15 15 15 15 15 16 16 16 17 17 18 19 19 20 20 21 21 22 22 22 23 23 23 24 24 25 25 25
19 19 18 17 17 16 17 16 17 17 16 16 16 17 17 17 17 17 18 18 19 19 20 20 21 21 22 23 24 24 25 25 26 26 27 27 27 27 28 28 28 29 29
18 19 18 17 17 17 16 17 17 18 18 18 18 19 19 19 20 20 21 21 21 22 23 24 24 25 25 26 27 28 29 29 30 30 31 31 32 32 32 32 32 33 33
18 19 18 18 18 18 18 18 18 18 19 20 20 21 21 21 22 22 23 24 24 25 25 27 28 28 29 30 30 31 31 32 33 34 34 35 35 36 36 37 37 37 38
19 19 19 19 19 19 19 19 19 19 20 21 22 22 23 23 24 25 26 26 27 28 28 29 30 31 32 33 33 34 35 36 36 37 38 38 38 39 39 40 40 41 41
19 19 19 19 20 19 19 19 19 20 21 22 23 24 24 25 26 27 28 29 30 31 32 32 33 34 35 36 36 37 38 39 39 40 41 41 41 43 43 44 44 45 45
19 19 20 20 20 19 19 19 20 21 22 22 23 24 26 26 28 29 30 31 31 32 33 34 35 36 37 38 39 39 40 41 42 43 44 45 46 47 48 49 49 49 49
17 18 18 19 20 20 20 20 21 22 23 24 25 26 28 29 30 31 32 32 33 34 35 36 37 38 39 41 42 43 44 44 45 46 48 49 50 51 52 52 53 54 54
16 17 18 19 20 21 22 22 23 24 25 26 28 29 30 30 31 32 33 34 36 37 38 39 40 42 43 44 46 47 48 49 49 50 52 53 54 55 56 56 57 57 58
17 17 18 20 21 23 24 25 26 27 27 28 29 30 31 32 33 35 36 37 38 40 41 42 44 45 47 48 49 50 52 53 54 55 56 56 56 57 57 58 59 60 60
18 18 19 21 24 25 26 26 27 28 30 31 32 33 34 35 36 37 39 40 41 43 44 46 47 49 50 51 52 54 55 56 56 57 58 59 59 59 60 60 61 62 62
18 19 21 22 24 26 27 28 29 30 32 33 34 35 36 37 38 39 41 42 45 46 48 49 50 51 53 54 55 56 57 58 58 59 60 61 61 61 61 61 62 63 63